GFSWCAN_prec_radar_123.txt.gz
Reflectivity
16 15 23 9 -20 -20 -6 3 12 16 20 22 14 12 14 17 15 -19 -20 -20 -20 8 -3 20 12 14 -20 -20 -20 -13 6 -10 4 16 7 -11 -20 -20 -20 -20 -20 7 6 -6 3 -2 -20 -20 -20 -20 -20 -20 -20 -20
13 13 14 -18 -20 -20 -17 -0 -20 -20 -20 -20 -5 18 12 -4 10 -16 -20 -20 -20 9 -14 -20 -20 -20 -19 -20 14 11 -17 8 -15 -6 -19 -20 -20 -20 -20 -20 -20 9 1 -14 -20 -20 -20 -20 -20 -20 -20 -20 -20 -20
-20 -20 -20 -20 -20 -20 -20 -18 -20 -20 8 -15 -20 -20 -20 3 22 4 -20 -20 3 11 -20 -20 -20 -20 -20 -20 -20 18 23 -20 -8 32 15 7 -13 -15 -20 -20 -20 -20 -20 -20 -20 -20 -20 -20 -20 -20 -20 -20 -20 -20
-20 -20 -20 -20 -20 -20 -20 -20 9 40 11 -0 -18 -11 -20 -19 23 -2 -20 -20 -20 -0 -20 -20 -20 -20 -20 -20 -20 -20 -16 8 -14 -2 25 9 -9 -20 -20 -20 19 -2 -20 -20 -20 -20 -20 -20 -20 -20 -20 -20 -20 -20
-20 -20 -20 -20 -20 -6 -20 -20 -11 -18 4 24 17 -7 -20 -20 -17 15 -20 -20 -20 -20 24 -20 -20 1 -20 -20 -20 -19 -12 1 0 -14 12 -14 30 24 21 14 3 -20 -20 -20 -20 -20 -20 -20 -20 -20 -20 -20 -20 -20
-7 -20 -20 -20 -8 4 5 -12 -5 21 22 22 9 4 -20 -20 2 17 24 -20 -20 19 -11 1 -20 -20 -20 -0 11 9 9 9 23 9 1 14 30 0 -16 -20 -20 -20 -20 -20 -20 -20 -20 -20 -20 -20 -20 -20 -20 -20
-14 -0 5 7 6 8 3 -3 2 14 9 13 20 7 2 -4 -20 -20 -17 -20 -20 -16 31 24 4 22 8 6 26 15 32 16 9 38 21 15 0 -20 -20 -15 -20 -20 -20 -20 -20 -20 -20 -20 -20 -20 -20 -20 -20 -20
19 30 32 23 8 10 -9 -20 -14 14 31 18 9 15 12 19 -4 -10 -1 15 2 23 30 20 9 29 37 35 34 30 27 35 27 -11 -9 -20 -20 -20 10 -20 -20 -20 -20 -20 -20 -20 -20 -20 -20 -20 -20 -20 -20 -20
37 3 10 -6 -20 12 -2 -10 1 12 -5 22 7 25 24 3 0 6 4 29 17 30 18 6 17 22 27 10 11 8 11 -6 -4 -20 -20 -20 -20 -13 -20 -20 -20 -20 -20 -20 -20 -20 -20 -20 -20 -20 -20 -20 -20 -20
16 15 12 11 -16 11 13 -4 -6 7 35 24 8 31 20 20 14 23 34 40 37 39 26 10 13 17 7 -3 7 5 5 -15 1 -20 -20 -20 -20 -20 -20 -20 -20 -20 -20 -20 -20 -20 -20 -20 -20 -20 -20 -20 -20 -20
11 16 5 8 5 -8 -16 -20 -11 35 26 29 33 26 27 31 19 38 22 14 6 -16 -20 -20 -20 -20 -12 -19 -20 -20 -20 -20 -20 -20 -20 -20 -20 -20 -20 -20 -20 -20 -20 -20 -20 -20 -20 -20 -20 -20 -20 -20 -20 -20
28 18 15 17 14 11 11 12 16 -17 15 -8 8 19 25 34 8 -4 -20 -20 -20 -20 -20 -20 -20 -20 -20 -20 -20 -20 -20 -20 -20 -20 -20 -20 -20 -20 -20 -20 -20 -20 -20 -20 -20 -20 -20 -20 -20 -20 -20 -20 -20 -20
3 19 27 19 7 16 17 14 20 19 13 -2 -4 11 20 -11 -20 -20 -20 -20 -20 -20 -20 -20 -20 -20 -20 -20 -20 -20 -20 -20 -20 -20 -20 -20 -20 -20 -20 -20 -20 -20 -20 -20 -20 -20 -20 -20 -20 -20 -20 -20 -16 -4
-16 -20 -14 16 12 18 25 17 -11 -20 -20 -10 -8 15 8 -20 -20 -20 -20 -20 -20 -20 -20 -20 -20 -20 -20 -20 -20 -20 -20 -20 -20 -20 -20 -20 -20 -20 -20 -20 -20 -20 -20 -20 -20 -20 -20 -20 -20 -20 -20 -11 -16 -16
-20 -20 -14 -2 26 16 13 -2 -20 -15 -20 -20 -20 -20 -20 -20 -20 -20 -20 -20 -20 -20 -20 -20 -20 -20 -20 -20 -20 -20 -20 -20 -20 -20 -20 -20 -20 -20 -20 -20 -20 -20 -20 -20 -20 -20 -20 -20 -20 -20 -19 -17 -16 -4
-20 -20 -20 -20 -15 -15 -9 -18 -20 -20 -20 -20 -20 -20 -20 -20 -18 -20 -20 -20 -20 -20 -20 -20 -20 -20 -20 -20 -20 -20 -20 -20 -20 -20 -20 -20 -20 -20 -20 -20 -20 -20 -20 -20 -20 -20 -20 -20 -20 -20 -20 -19 -7 -10
-20 -20 -17 -20 -20 -20 -20 -20 -20 -20 -20 -20 -20 -18 -20 -20 -20 -20 -20 -20 -20 -20 -20 -20 -20 -20 -20 -20 -20 -20 -20 -20 -20 -20 -20 -20 -20 -20 -20 -20 -20 -20 -20 -20 -20 -20 -20 -20 -20 -14 -6 -20 -3 -4
-20 -20 -20 -20 -20 -20 -20 -20 -20 -20 -20 -20 -20 -20 -20 -17 -18 -20 -20 -20 -20 -20 -20 -20 -20 -20 -20 -20 -20 -20 -20 -20 -20 -20 -14 -20 -20 -20 -20 -20 -20 -20 -20 -20 -20 -20 -20 -20 -20 -20 -20 -20 -4 6
-20 -20 -20 -20 -20 -20 -20 -20 -20 -20 -20 -20 -19 -20 -20 -15 -20 -20 -20 -20 -20 -20 -20 -20 -20 -20 -20 -20 -20 -20 -20 -20 -20 -20 -20 -20 -20 -20 -20 -20 -20 -20 -20 -20 -20 -20 -20 -20 -20 -20 -20 -20 -20 -19
-20 -20 -20 -20 -20 -20 -20 -20 -20 -20 -20 -20 -20 -20 -20 -20 -20 -20 -20 -20 -20 -20 -20 -20 -20 -20 -20 -20 -20 -20 -20 -20 -20 -20 -20 -20 -20 -20 -20 -20 -20 -20 -20 -20 -20 -20 -20 -20 -20 -20 -20 -20 -20 -20
-20 -20 -20 -20 -20 -20 -20 -20 -20 -20 -20 -20 -20 -20 -20 -20 -20 -20 -20 -20 -20 -20 -20 -20 -20 -20 -20 -20 -12 -14 -20 -20 -20 -20 -20 -20 -20 -20 -20 -20 -20 -20 -20 -20 -20 -20 -20 -20 -20 -20 -20 -20 -20 -20
-20 -20 -20 -20 -20 -20 -20 -20 -20 -20 -20 -20 -20 -20 -20 -20 -20 -20 -20 -20 -20 -20 -20 -20 -20 -20 -20 -20 -20 -20 -19 -20 -20 -20 -20 -20 -20 -20 -20 -20 -20 -20 -20 -20 -20 -20 -20 -20 -20 -20 -20 -20 -20 -20
-20 -20 -20 -20 -20 -20 -20 -20 -20 -20 -20 -20 -20 -20 -20 -20 -20 -20 -20 -20 -20 -20 -20 -20 -20 -20 -20 -20 -20 -20 -20 -20 -20 -20 -20 -20 -20 -20 -20 -20 -20 -20 -20 -20 -20 -20 -20 -20 -20 -20 -20 -20 -20 -20
-20 -20 -20 -20 -20 -20 -20 -20 -20 -20 -20 -19 -20 -20 -20 -20 -20 -20 -20 -20 -20 -20 -20 -20 -20 -20 -18 -20 -20 -20 -19 -19 -20 -20 -20 -20 -20 -20 -20 -20 -20 -20 -20 -20 -20 -20 -20 -20 -20 -20 -20 -20 -20 -20
-20 -20 -20 -20 -20 -20 -20 -20 -20 -20 -20 -20 -20 -20 -20 -20 -20 -20 -20 -20 -20 -20 -20 -20 -20 -20 -20 -20 -19 -20 -20 -20 -20 -20 -20 -20 -20 -20 -20 -20 -20 -20 -20 -20 -20 -20 -20 -20 -20 -20 -20 -20 -20 -20
-20 -20 -20 -20 -20 -20 -20 -20 -20 -20 -20 -20 -20 -20 -20 -20 -20 -20 -20 -20 -20 -20 -20 -20 -20 -20 -20 -20 -20 -20 -20 -20 -20 -20 -20 -20 -20 -20 -20 -20 -20 -20 -20 -20 -20 -20 -20 -20 -20 -20 -20 -20 -20 -20
-20 -20 -20 -20 -20 -20 -20 -20 -20 -20 -20 -20 -20 -20 -20 -20 -20 -20 -20 -20 -20 -20 -20 -20 -14 -20 -20 -20 -20 -20 -20 -20 -20 -20 -20 -20 -20 -20 -20 -20 -20 -20 -20 -20 -20 -20 -20 -20 -20 -20 -20 -20 -20 -20
-20 -20 -20 -20 -20 -20 -20 -20 -20 -20 -20 -20 -20 -20 -20 -20 -20 -20 -20 -20 -20 -20 -20 -20 -20 -20 -20 -20 -20 -20 -20 -16 -19 -20 -20 -20 -20 -20 -20 -20 -20 -20 -20 -20 -20 -20 -20 -20 -20 -20 -20 -20 -20 -20
-20 -20 -20 -20 -20 -20 -20 -20 -20 -20 -20 -20 -20 -20 -20 -20 -20 -20 -20 -20 -19 -20 -20 -20 -20 -20 -20 -20 -20 -20 -20 -20 -20 -20 -20 -20 -20 -20 -20 -20 -20 -20 -20 -20 -20 -20 -20 -20 -20 -20 -20 -20 -20 -20
-20 -20 -20 -20 -20 -20 -20 -20 -20 -20 -20 -20 -20 -20 -20 -20 -20 -20 -20 -20 -20 -20 -20 -20 -20 -20 -20 -20 -20 -20 -20 -20 -20 -20 -20 -20 -20 -20 -20 -20 -20 -20 -20 -20 -20 -20 -20 -20 -20 -19 -18 -20 -17 -20
-20 -20 -20 -20 -20 -20 -20 -20 -20 -20 -20 -20 -20 -20 -20 -20 -20 -20 -20 -20 -19 -20 -20 -20 -20 -20 -20 -20 -20 -20 -20 -20 -20 -20 -20 -20 -20 -20 -20 -20 -20 -20 -20 -20 -20 -20 -20 -20 -20 -20 -20 -20 -20 -20
-20 -20 -20 -20 -20 -20 -20 -20 -20 -20 -20 -20 -20 -20 -20 -20 -20 -20 -20 -20 -20 -20 -20 -20 -20 -20 -20 -20 -20 -20 -20 -20 -20 -20 -20 -20 -20 -20 -20 -20 -20 -20 -20 -20 -20 -20 -20 -20 -20 -20 -20 -20 -20 -20
-20 -20 -20 -20 -20 -20 -20 -20 -20 -20 -20 -20 -20 -20 -20 -20 -20 -20 -20 -20 -20 -20 -20 -20 -20 -20 -20 -20 -20 -20 -20 -20 -20 -20 -17 -20 -20 -20 -20 -20 -20 -20 -20 -20 -20 -20 -20 -20 -20 -20 -20 -20 -20 -20

GFSWCAN_prec_radar_129.txt.gz
Reflectivity
29 -20 -20 -20 -20 -20 15 1 -20 22 10 6 -10 11 37 31 27 39 34 24 22 28 3 -12 19 -4 12 18 10 10 15 14 18 12 10 10 6 -15 -6 10 -18 21 21 14 16 17 15 -20 -20 -3 -20 -20 -20 -20
0 -7 -20 -1 -19 -20 -20 -18 -3 28 40 26 9 12 36 39 37 37 28 25 17 -9 -7 -20 -20 2 16 0 -9 18 -16 16 9 14 -13 12 3 7 -13 -15 -20 5 -16 5 20 19 18 11 -5 -10 -20 -20 -20 -20
-20 -2 -20 -20 -20 -20 -20 -20 9 23 33 35 30 33 36 32 28 27 20 11 4 -18 -19 -20 -20 -20 -20 -20 -20 14 -13 -19 -12 16 15 22 23 20 20 10 -14 -20 1 -20 -11 -20 -20 2 -20 -20 -20 -20 -20 -20
-20 -20 -20 -20 -20 -20 -20 -0 10 9 22 27 27 30 34 14 -8 8 2 -10 -16 -20 5 -3 -20 -20 -20 -20 -20 -20 -20 -20 -20 -20 24 22 4 4 27 18 19 7 8 -3 -2 -7 -13 -20 -20 -20 -20 -20 -20 -20
-20 -20 -20 -20 -20 -20 -20 -5 -0 8 12 -6 15 19 25 -20 -20 8 4 -12 -20 -20 10 9 -17 -20 -20 -20 -20 -20 -20 -20 -20 4 8 2 15 23 21 19 -20 -20 17 18 14 18 24 14 -17 -20 -20 -20 -20 -20
-20 -20 -20 -20 -20 -20 -20 -20 -20 -20 -20 6 -20 3 8 -20 -20 1 -4 -20 -20 -20 -4 7 -20 19 -20 -20 -20 -19 -20 -7 5 11 9 17 16 26 18 3 20 -20 -20 2 13 15 -19 -20 -20 -20 -20 -20 -20 -20
-20 -20 -20 -19 -20 -20 -20 -20 9 3 -20 -20 -20 -20 6 -20 18 -3 14 2 -20 -9 5 12 -20 -8 -13 13 17 13 0 -2 11 8 9 13 16 20 6 5 -6 26 -1 -16 -20 -20 -20 -20 -20 -20 -20 -20 -20 -20
-20 -20 -16 -20 -20 -20 -20 -20 -0 -1 -9 -9 2 -20 9 -16 2 -20 8 -20 -20 9 -19 4 10 24 -7 9 13 -0 18 16 14 10 16 6 11 7 17 8 -9 -6 -20 -20 -20 -20 -20 -20 -20 -20 -20 -20 -20 -20
10 -0 -2 -8 -8 -4 -19 -15 -20 21 -0 -20 10 8 19 17 2 11 -20 3 -1 11 11 -3 -2 24 14 27 28 21 1 12 -14 10 4 12 0 19 9 19 -19 -20 -20 -20 -20 -20 -20 -20 -20 -20 -20 -20 -20 -20
12 20 1 4 -19 -14 -7 -20 -11 17 27 15 17 8 18 10 -20 -19 -20 -18 29 18 4 -1 23 24 25 28 8 16 9 22 9 10 10 29 17 19 -19 -20 -20 -20 -20 -20 -20 -20 -20 -20 -20 -20 -20 -20 -20 -20
-20 -16 7 7 -3 7 4 -18 22 9 19 6 15 15 23 -20 -6 -17 -20 -2 10 15 1 -9 -15 27 29 31 24 10 21 22 24 16 18 20 6 17 -20 -20 -20 -20 -20 -20 -20 -20 -20 -20 -20 -20 -20 -20 -20 -20
-1 -16 -6 4 6 11 -3 -19 -2 -13 15 13 11 18 13 -2 29 16 19 15 16 27 17 4 24 40 24 15 -10 13 8 7 4 4 12 -3 1 -20 -20 -20 -20 -20 -20 -20 -20 -20 -20 -20 -20 -20 -20 -20 -20 -20
4 8 -5 -1 -14 -20 -10 14 17 13 -1 23 30 7 17 9 20 5 -7 2 17 15 -5 17 13 15 15 18 5 10 15 3 -19 12 1 7 -20 -20 -20 -20 -20 -20 -20 -20 -20 -20 -20 -20 -20 -20 -20 -20 -20 -20
8 7 2 0 -1 0 20 14 24 9 30 26 9 -13 8 -2 5 4 24 21 -15 18 7 15 12 18 -19 -20 -20 -20 -20 -19 3 5 -17 -4 -20 -20 -20 -20 -20 -20 -20 -20 -20 -20 -20 -20 -20 -20 -20 -20 -20 -20
-10 -1 10 19 24 16 11 23 7 16 6 8 2 -7 -8 -12 -20 -20 -19 -10 -20 9 18 16 -16 -20 -20 -20 -20 -20 -14 -7 -1 3 2 -16 -20 -20 -20 -20 -20 -20 -20 -20 -20 -20 -20 -20 -20 -5 -16 -2 -13 -4
22 14 9 -11 -18 -20 -16 -18 -9 6 -20 -17 -11 12 10 -1 2 12 6 -14 -1 5 19 -10 -13 -8 -20 -20 -20 -20 -20 -20 4 -3 1 -2 1 3 -1 -14 -20 -20 -3 -20 -20 -20 -20 -20 -20 -20 -20 -19 -8 -18
17 -5 3 10 5 -13 -15 7 3 -13 -19 -16 12 10 5 13 2 -0 -3 5 -20 10 -6 -20 -20 -20 -20 -20 -20 -20 -13 -11 -3 10 1 9 3 -4 -20 -20 -20 -20 -20 -20 -20 -20 -20 -20 -2 -13 -20 -20 -7 -5
-20 -9 9 -20 -20 -20 -20 -20 -20 -20 -20 -1 7 2 -2 -6 4 -20 -7 -20 -15 14 -20 -20 -20 -20 -20 -20 -17 -6 -1 -4 7 4 3 18 -9 -17 -4 -20 -20 -20 -20 -20 -20 -20 -20 -20 -20 -12 -20 -20 -20 -18
-20 -20 -20 -20 -20 -20 -20 -20 -20 -20 -9 -19 -13 2 -8 -0 -16 -20 -20 -20 -20 -20 -20 -20 -20 -20 -12 -20 -6 -4 -7 5 4 1 -2 -3 -2 -13 -14 -17 -11 -18 -20 -20 -20 -20 -20 -19 -15 -20 -20 -20 -20 -20
-20 -20 -20 -20 -20 -20 -20 -20 -20 -14 1 -12 -3 -3 -12 -14 -18 -7 -20 -20 -20 -20 -20 -20 -20 -8 -3 -3 -4 5 8 6 3 4 2 0 -0 -1 -15 -17 -6 -17 -20 -20 -20 -4 -20 -20 -20 -20 -20 -20 -20 -11
-20 -20 -20 -20 -20 -20 -20 -20 -20 -8 -1 -3 -12 -20 9 -20 -12 4 -20 -20 -20 -20 -20 -20 1 -20 -2 -12 -20 -20 -20 -20 -2 -20 1 -20 -6 -5 -3 -20 -20 -20 -20 -20 1 -14 -2 -20 -20 -20 0 -4 7 3
-20 -20 -20 -20 -20 -20 -20 -20 -20 -20 -0 -2 -17 -20 2 8 6 3 -20 -10 -20 -20 -20 -20 -18 -20 -20 -20 -20 -19 -20 -20 -20 -20 -20 -20 -2 -13 -2 -12 -20 -5 -18 -20 -20 -20 -17 -20 -20 -4 1 6 6 4
-20 -20 -20 -20 -20 -20 -20 -19 -17 -20 -11 -3 -20 -12 -1 1 -6 -20 -19 -20 -20 -20 -20 -20 -20 -20 -20 -20 -20 -20 -20 -20 -20 -20 -20 -20 -10 -20 -16 -3 0 -11 -14 -0 -3 -12 -3 -19 -9 4 7 5 5 5
-20 -20 -20 -20 -20 -20 -20 -20 -20 -20 -20 -8 -3 -9 -19 2 -18 -6 -2 0 -5 -20 -20 -20 -20 -17 -20 -11 -12 -20 -20 -5 -6 -1 -18 -9 -20 -20 -20 -20 -20 -20 -20 -19 -20 2 -9 -15 -5 2 2 3 5 -2
-20 -20 -20 -20 -20 -20 -20 -4 -4 -19 -2 -0 -2 -1 1 -1 2 2 -20 -1 -19 -20 -20 -20 -19 -11 0 -6 -18 -20 -20 -19 -3 -4 -12 -19 -20 -19 -12 -20 -20 -20 -20 -12 -3 -14 -0 -1 -16 3 -2 3 -1 1
-20 -20 -20 -20 -20 -20 -9 2 1 3 2 2 1 -9 -7 0 -6 -20 -20 -9 -13 11 9 -3 9 9 8 8 8 2 -14 -16 -20 -15 -20 -20 -15 -0 -17 -14 -13 -20 -20 -12 -16 -20 -20 -5 -19 3 2 5 3 3
-20 -20 -20 -20 -20 -20 0 -10 -20 3 4 1 -8 -20 -1 -6 -20 -20 -7 -17 -4 -9 6 7 -2 -2 -20 -20 -6 -4 -2 -3 -19 -18 -20 -17 -14 -9 -14 -16 -10 -3 -20 -20 -20 -20 -6 -20 -20 1 3 6 4 6
-20 -20 -20 -4 -5 -20 3 2 5 6 7 -3 -9 -0 -20 -20 -9 -18 -20 -20 -20 -0 -20 -20 -20 -20 -20 -12 3 -20 -20 -20 -18 -20 -20 -20 -20 -20 -19 -20 -20 -20 -20 -20 -20 -20 -20 -0 -3 2 3 2 4 9
-1 -12 -20 -20 -20 -20 -4 -0 1 -14 -20 -5 -14 -1 -1 -20 -8 -5 -18 -19 -19 -2 -4 -5 -3 3 -0 -13 -19 -6 -20 -19 -17 -20 -11 6 -18 -20 -20 -20 -20 -16 -20 -20 4 4 -10 -20 2 4 5 4 3 8
-3 -15 -9 -20 -20 -20 -12 -15 -0 4 -3 -2 -0 -12 -6 -7 4 -20 -20 -6 -20 -2 4 10 2 -4 -12 -19 -5 -19 -5 -14 -20 -20 -20 -20 -11 -11 -20 -20 -20 -20 -20 -20 -20 -19 -16 -2 -10 7 7 4 4 3
-8 -3 -1 1 -8 0 -14 -20 -12 -7 5 0 4 1 1 10 -8 -20 -15 -1 4 7 2 3 7 12 13 7 5 4 5 -1 -12 -19 -4 -13 -1 -20 -20 -16 -20 -20 -20 -20 -19 -15 -3 -20 -18 -16 -5 -6 -2 -2
2 0 2 -1 4 -11 -8 5 6 3 5 6 -1 7 8 8 -7 4 -20 -20 -20 -18 1 1 4 7 -18 11 6 -6 -18 -0 -7 -0 -20 -1 -19 -16 -20 -20 -3 -19 -20 -19 -20 -19 -10 -6 -20 -20 -19 -7 -2 -4
-2 -1 -0 1 3 1 5 2 -2 -2 -4 -2 -1 -3 -18 3 4 1 -20 -20 1 3 4 2 2 -20 -20 -20 -3 -16 -16 -6 -4 -8 -3 -12 9 5 -10 -20 -5 -20 -20 -20 -20 -20 -18 -17 -6 -6 -2 1 -5 -2

GFSWCAN_prec_radar_132.txt.gz
Reflectivity
11 15 23 34 1 -20 -20 -20 -20 -20 -20 -20 -8 1 -2 10 6 21 6 13 20 30 21 2 9 2 31 25 29 31 19 9 18 13 -1 8 -20 -7 4 -11 -20 14 19 6 -2 13 10 -20 -20 -20 -2 -20 -20 -20
13 26 -5 -9 -1 -20 -0 6 -5 -20 -20 -20 2 -13 -10 24 24 33 21 3 19 32 -4 -17 -17 5 30 -15 -16 -19 -13 -4 -12 -20 -19 4 -15 1 -9 -12 -20 0 -2 16 17 20 -16 -8 -20 1 -3 -20 -20 -20
-20 -20 -20 -20 -20 -20 -20 -20 -20 -19 -3 21 11 -1 16 28 36 37 39 28 30 16 15 -17 -18 17 -12 -16 37 22 12 -8 8 -16 14 14 -12 -10 6 -19 -14 -20 -20 -20 -11 -20 -20 -20 -20 -20 -20 -20 -20 -20
-20 -20 -20 -20 -20 -20 -20 -20 -14 24 26 38 41 36 37 40 40 36 34 34 18 6 9 17 -3 1 -6 -20 -20 -18 12 17 -20 -20 -17 -19 7 -2 -3 -20 -9 23 23 8 1 -20 -8 -20 -20 -20 -14 -20 -20 -20
-20 -20 -20 -20 -20 -20 -20 -19 18 13 33 36 40 36 27 27 25 29 27 20 14 5 6 -10 -13 -20 -20 -20 -20 -20 -20 -20 1 2 -20 -18 -20 -3 -11 -0 -20 -5 13 18 -16 -4 0 -20 -20 14 9 -20 -20 -20
-20 -20 -20 -20 -20 -20 -20 3 -4 8 21 30 39 19 7 -15 1 5 4 -8 -19 -19 -20 -20 -20 -20 -20 -20 -20 -20 -20 -20 1 2 -5 -17 -20 16 -3 -20 -20 6 -12 13 21 -19 -19 -20 -20 20 -4 -20 -20 -20
-19 -20 -20 -20 -20 -20 -20 -9 -20 -12 2 10 16 3 -17 -20 1 5 7 -10 -20 -20 -20 -20 -20 -20 -20 -20 -20 -20 -14 21 20 18 -1 -1 16 -1 2 -20 -20 -20 -20 -20 9 -20 -20 -20 -20 -20 -20 -20 -20 -20
8 1 -20 -20 -20 -20 -20 -20 -15 -16 -18 -12 -20 -20 -5 -20 -20 5 -20 -20 -20 -20 -20 -4 -2 -20 -20 13 14 16 22 14 24 4 8 10 11 9 -2 -20 -20 -20 -9 -1 -20 -20 -20 -20 -20 -20 -20 -20 -20 -20
-14 1 -4 -20 -20 -20 -20 -17 1 -20 -20 -20 -20 -20 -20 -7 5 -8 -20 -20 -20 -7 3 -20 -7 21 2 4 18 11 12 8 15 14 12 17 11 8 -20 -20 -20 12 13 -20 -20 -20 -20 -20 -20 -20 -20 -20 -20 -20
-20 2 -1 -18 -20 -20 -20 4 -9 14 -20 -20 -20 -19 16 1 -20 -20 -16 1 -15 17 -4 -1 -13 -4 -3 3 -3 -1 -16 19 14 -20 -7 4 -19 -20 -20 -11 22 5 -20 -20 -20 -20 -20 -20 -20 -20 -20 -20 -20 -20
-4 6 -13 -5 -20 -1 4 -10 -20 -19 16 17 20 17 20 -20 3 -17 -20 -20 -14 -1 -10 -11 -20 -20 -10 16 17 8 19 -8 8 3 -15 -2 -20 -20 -16 15 -20 -20 -20 -20 -20 -20 -20 -20 -20 -20 -20 -20 -20 -20
5 13 12 -1 7 -10 -20 -18 -12 15 19 15 -9 -3 -18 -20 -10 -11 -10 -9 -12 -12 -9 -2 -9 -13 -5 -7 26 15 28 17 21 27 5 20 7 9 -11 -20 -20 -20 -20 -20 -20 -20 -20 -20 -20 -20 -20 -20 -20 -20
4 4 8 4 0 -16 -20 -7 -20 3 9 -13 2 -4 3 -4 13 3 10 10 18 27 15 9 33 18 35 40 13 -6 -14 18 19 18 11 12 -20 -20 -20 -20 -20 -20 -20 -20 -20 -20 -20 -20 -20 -20 -20 -20 -20 -20
5 5 7 -1 2 -4 -19 -1 31 20 22 28 22 15 22 3 -10 14 19 33 22 22 18 15 19 26 9 -5 6 5 -7 -2 8 -1 -2 -19 -20 -20 -20 -20 -20 -20 -20 -20 -20 -20 -20 -20 -20 -20 -20 -20 -20 -20
4 4 4 4 2 -20 14 28 17 21 35 27 0 13 -3 -9 -14 -20 -11 -11 -17 0 20 20 13 17 9 -20 -20 -20 -20 -15 -20 5 7 -20 -20 -20 -20 -20 -20 -20 -20 -20 -20 -20 -20 -19 -20 -20 -14 -20 -20 -20
-0 6 20 18 24 27 17 19 27 27 11 9 -11 6 9 6 -20 3 2 -14 -9 19 21 4 -20 -20 -20 -20 -20 -20 -20 -20 4 6 5 -20 -20 -20 -20 -20 -20 -20 -20 -20 -20 -20 -20 -20 -20 -17 -6 -6 -20 -19
14 5 -20 -20 -20 -20 8 28 24 11 -1 -6 8 10 -2 12 6 -11 -20 -18 -2 18 -10 -9 -20 -20 -20 -20 -20 -20 -11 -18 8 7 -4 -20 -20 -20 -20 -20 -20 -20 -20 -20 -20 -20 -20 -20 -20 -20 -20 -6 -5 -11
15 3 -13 -20 2 -8 3 -15 7 0 -5 -19 15 -4 -14 0 2 3 15 -6 21 24 9 6 -20 -20 -20 -20 -17 -7 -15 1 7 -20 -2 -8 -18 2 -20 -20 -20 -20 -20 -20 -20 -20 -20 -20 -18 -20 -16 -20 -20 -1
-20 -19 -4 -6 -20 -2 7 -20 -8 3 -20 -4 -20 -8 -8 -12 -3 -20 -17 5 10 1 -1 -20 -20 -20 -17 -20 3 -8 -20 -8 -17 -2 -8 18 -7 -20 -20 -20 -20 -20 -20 -20 -20 -20 -20 -20 -20 -20 -20 -20 -7 -15
-20 -20 -20 -20 -20 9 -9 -20 -15 1 -20 -0 -7 -10 -15 -14 -20 -20 -17 -13 -11 -19 -20 -20 -9 -6 -10 -17 -4 -13 -16 1 -20 -1 -10 0 -7 -11 -15 -17 -20 -20 -20 -20 -16 -18 -20 -20 -20 -20 -20 -20 -20 -20
-20 -20 -20 -20 -20 -20 -20 -20 -2 -20 -8 -7 -20 -5 14 -20 11 12 16 -20 -20 17 7 -20 -20 -20 -8 -20 -20 3 -0 4 4 6 -13 -20 -4 -17 -12 8 -19 -20 -20 -20 -14 -14 -6 -6 -20 -20 -20 0 3 -20
-20 -20 -20 -20 -20 -20 -17 -20 -10 -3 3 -19 -20 -19 2 -9 6 7 -8 -7 3 -5 -18 -20 -20 -20 -20 -20 -20 -3 -5 -20 -20 -20 -20 -20 -20 -20 -20 -20 -20 -16 -12 -19 -20 -20 -20 -20 -20 -20 -20 3 8 -6
-20 -20 -20 -20 -20 -20 -20 -20 -6 -18 0 -3 -13 -1 3 -8 -10 -20 -19 -17 -15 -20 -20 -20 -20 -20 -20 -20 -20 -20 -20 -20 -20 -20 -17 -7 -7 -5 -20 -20 -20 -12 -18 -20 -19 -20 -11 3 -20 -5 4 5 7 7
-20 -20 -20 -20 -20 -20 -20 -14 -20 -20 -20 -9 -4 -20 -16 1 -8 -0 -6 -17 -20 -20 -20 -20 -20 -20 -20 -20 -20 -8 -20 -20 -20 -20 -20 -20 -20 -20 -20 -3 -16 -20 -20 -20 -20 -14 -18 -10 -20 2 6 3 5 2
-20 -20 -20 -20 -20 -19 -4 -6 -20 -1 1 -13 -12 -5 -19 -20 -9 -3 -20 -10 -19 -18 -20 -20 -20 -20 -16 -2 -20 -20 -20 -20 -19 -20 -19 -20 -18 -20 -20 -20 -20 -20 -20 -10 -4 -7 -14 -8 -16 6 2 6 6 -11
-20 -20 -17 -20 -7 -10 -3 1 2 1 5 5 6 4 -10 4 -0 -11 -14 4 -15 -10 -20 -20 -8 -0 -6 -4 7 -20 -20 -16 -20 2 -20 -20 -20 -20 -17 -20 -20 -20 -20 -3 -20 -20 -18 -20 -20 1 -1 7 -20 0
-20 -20 -20 -20 -13 -20 -20 -13 1 5 7 -6 8 -0 -7 -8 -20 -9 -20 -10 6 -6 -18 -20 1 10 3 -9 -6 -4 -20 -20 -20 -10 -20 -20 -20 -12 -11 -6 -20 -18 -20 -20 4 -20 -20 -20 -10 -1 5 9 1 6
-20 -20 -9 -4 -15 -6 3 5 6 3 2 3 -9 5 1 0 7 -20 -18 -20 -20 -20 -20 -17 -11 -20 -20 -18 7 -20 -13 -20 -20 -20 -20 -20 -20 -20 -20 -20 -20 -20 -20 -20 -20 -20 -15 -20 -17 4 6 6 6 10
1 -11 -18 -20 -3 0 -1 -0 -2 1 -20 -20 -9 8 8 -18 -20 -20 -20 -20 -20 -20 -20 -20 3 -3 -20 -19 -4 -6 -10 -10 -5 -5 -4 2 -2 -20 -20 -20 -20 -20 -13 -20 4 6 -19 -20 -10 6 5 5 3 10
-6 -17 1 1 -20 -20 -20 4 6 -4 -15 -2 -5 -20 -20 -20 -9 -20 -20 -20 -20 -20 -20 -14 -20 -15 -14 -4 -0 0 -14 -11 -1 12 2 -20 -2 -20 -20 -15 4 -14 -16 -13 -20 -17 -19 3 -9 -3 7 4 7 7
-20 -20 -7 -1 6 8 -8 -20 -13 -20 1 -7 -9 3 3 6 -8 -20 -20 -15 -20 -16 7 4 5 -13 6 2 9 -17 -7 -20 -20 -20 -12 -15 -13 -6 -11 -20 -5 -20 -19 -11 -20 -20 -8 -16 3 4 5 -12 -5 -12
0 -7 5 2 2 -10 -9 -4 3 -0 -3 -0 3 -12 8 11 7 -16 -19 -20 -20 -20 6 -9 3 -5 -17 -17 -20 -20 -18 -20 -20 -20 -1 -20 -20 -20 -17 -20 -0 3 0 -6 -20 -20 -20 -20 -1 -19 0 -20 -16 -9
-6 -12 -6 -16 4 1 7 1 4 -4 -7 -4 -3 3 -19 10 8 -18 -19 -8 -17 -20 -20 -20 -7 -20 -20 -20 -20 -20 -20 -20 -20 -19 -3 -14 6 7 -12 -20 -0 1 -10 -6 -8 -1 -20 -20 -8 -15 -20 -9 -20 -16

GFSWCAN_prec_radar_135.txt.gz
Reflectivity
12 16 18 -6 9 -16 25 -13 -20 -12 -20 -20 -20 -20 -8 -4 -3 -9 -8 1 13 3 -7 9 34 36 14 3 -8 -3 34 20 -20 -20 -20 -20 -20 -20 -20 -20 -20 -20 -6 8 -10 15 4 -20 -20 2 8 -2 -20 -20
19 17 -17 -20 -20 -20 -19 -20 -20 -20 -20 -20 -4 2 -12 12 15 20 13 9 12 19 11 20 20 39 32 -11 14 3 8 -15 -20 -20 -20 -20 -18 -20 -20 -20 -20 -20 -20 -20 -17 -5 -20 -20 -20 -20 -20 -20 -10 -20
18 -7 -20 -10 -20 -20 -12 -20 -20 -20 -20 -20 -9 14 8 11 13 15 3 2 15 17 17 23 42 15 19 18 11 31 17 5 0 -15 -20 -20 -20 -20 -20 -20 -20 -20 -20 -20 -20 -20 -20 -20 -20 -20 -20 -20 -20 -20
-8 -20 -12 -10 9 8 -20 -20 -20 -20 -20 0 23 23 16 10 25 18 0 -1 25 32 29 31 27 10 15 44 31 25 26 15 6 7 -18 -20 -20 -20 -20 -20 -20 -20 -20 -20 -17 12 -5 -20 -17 5 19 -3 -20 -20
-20 -20 -4 6 -12 -20 -20 -20 -20 -20 6 20 33 34 32 26 17 18 -1 23 28 38 27 3 0 14 -0 16 4 -19 -6 28 -15 -20 -20 -20 -20 -20 -20 -20 -20 -20 -20 -20 -20 7 7 -7 -3 15 21 -8 -19 -10
-20 -20 -20 -20 -20 -20 -20 -20 -9 -20 24 35 26 32 42 41 34 43 37 38 31 33 15 -7 -20 -8 -20 -20 -20 -20 -20 -20 -20 -20 -20 -20 -20 -20 -20 -20 -20 -20 -20 -20 -20 -20 12 3 -20 -20 -20 -20 4 -11
-20 -20 -20 -20 -20 -20 -20 -14 -2 11 29 28 18 6 12 5 18 16 19 14 11 8 7 -4 -12 -5 -16 -20 -20 -20 -20 -20 -20 -20 -20 -20 -20 -20 -20 -20 -20 -20 -20 -20 -20 -20 -20 -20 -20 -20 -20 -20 -20 -20
-20 -20 -20 -20 -20 -20 -20 -20 -20 15 13 -20 -13 -11 -20 -20 -20 -20 -20 -18 -19 -20 -20 -20 -19 -20 -20 -20 -20 -20 -20 -20 -20 -20 -20 -20 -20 -20 -20 -20 -20 -20 -20 -20 -20 -20 -20 -20 -20 -20 -20 -20 -20 -20
-18 -13 -1 -20 -20 -20 -20 -20 -20 2 -20 -20 -20 -20 -20 -20 -20 -20 -20 -20 -20 -20 -20 -20 -20 -20 -20 -20 -20 -20 -20 -20 -20 -20 -20 -20 -20 -20 -20 -20 -20 -20 -20 -20 -17 -9 -20 -20 -20 -20 -20 -20 -20 -20
-11 2 -17 -20 -20 -4 -19 -20 -20 -20 -20 -20 -20 -20 -20 -20 -20 -20 -20 -20 -20 -20 -20 -20 -20 -20 -20 -20 -20 -20 -20 -20 3 -20 -20 -20 -20 -20 -20 -20 -15 -5 -19 -20 -20 -20 -20 -20 -20 -20 -20 -20 -20 -20
-20 -20 -20 -20 -20 -5 -20 -19 -17 -10 15 -20 -20 -20 -20 -20 -20 -20 -20 -20 -20 -20 -20 -20 -20 -20 -20 -20 -20 -20 -20 -20 -2 -20 -20 -20 -20 -20 -20 -20 11 8 -5 -20 -20 -20 -20 -20 -20 -20 -20 -20 -20 -20
-7 -17 -20 -20 -20 -20 -20 -13 1 -15 -20 -8 -14 -20 -20 -20 -20 -13 -20 -20 -18 10 -20 -20 -20 -20 -20 -15 7 -1 20 -3 -5 -20 -20 -0 11 -20 -17 -3 1 -20 -20 -20 -20 -20 -20 -20 -20 -20 -20 -20 -20 -20
6 1 -20 -20 -20 -20 -20 -20 -20 -20 -20 -20 -20 -5 -17 -20 7 -8 -20 8 4 7 -10 11 -16 -20 -4 -20 -20 -5 -10 17 8 30 21 8 9 -17 -20 -20 -20 -20 -20 -20 -20 -20 -20 -20 -20 -20 -20 -20 -20 -20
6 15 14 -6 -20 -19 -17 -18 -5 20 25 0 12 12 11 11 -20 12 13 27 18 26 23 30 24 29 30 3 24 13 14 -20 -20 -20 -20 -20 -20 -20 -20 -20 -20 -20 -20 -20 -20 -20 -20 -20 -20 -20 -20 -20 -20 -20
14 15 13 11 9 4 -19 7 24 29 33 25 20 15 -8 -12 -18 -20 -20 -20 -13 10 30 7 23 11 6 -19 -20 -20 -20 -20 -20 -20 -20 -20 -20 -20 -20 -20 -20 -20 -20 -20 -20 -20 -20 -20 -20 -20 -20 -20 -20 -20
-20 -20 7 5 -16 -5 -8 10 22 37 36 33 -15 -8 -20 -18 -12 -20 -20 -20 -20 10 16 -20 -20 -20 -20 -20 -20 -20 -20 -20 -17 -20 -20 -20 -20 -20 -20 -20 -20 -20 -20 -20 -20 -20 -20 -20 -20 -20 -20 -20 -20 -20
-13 -18 -20 -20 -20 -20 11 33 32 26 -10 -15 -14 -20 -20 -20 -18 -20 -20 -20 -20 -20 -20 -20 -20 -20 -20 -20 -20 -20 -20 -11 -20 -20 -20 -20 -20 -20 -20 -20 -20 -19 -6 -12 -4 -20 -20 -20 -20 -20 -20 -20 -20 -20
-1 -2 -19 -20 -5 -9 23 9 3 -17 6 -6 -6 -19 -19 -20 -20 -20 -20 -19 -20 -17 -20 4 -20 -20 -20 -20 -20 -20 -20 -20 -20 -20 -15 -19 -20 -20 -16 -9 -3 5 2 5 -8 -10 -20 -20 -20 -20 -20 -20 -20 -20
-20 -20 -12 -20 -3 32 32 4 -8 -1 -20 -20 -4 -10 8 -20 -20 -18 -10 -20 -20 6 -20 -20 -20 -20 -20 -20 -20 -20 -20 -20 -20 -20 11 -15 -20 -7 -12 4 7 9 0 -1 -1 -2 -18 -20 -20 -20 -20 -20 -20 -20
-20 -20 -20 -20 -20 -4 -20 -20 -20 -20 0 -0 -14 -4 3 -6 -15 -20 -20 -20 -20 -20 -20 -20 -20 -20 -20 -20 -20 -20 -20 -20 -20 -17 3 -17 -20 -20 -8 -2 -2 -8 -10 -17 -20 -9 -18 -20 -20 -20 -20 -20 -20 -20
-20 -20 -20 -20 -20 -20 13 -20 -20 -20 -20 -15 -9 1 10 -20 -20 -20 -20 -20 -20 -20 -20 -20 -20 -20 -20 -20 -20 -20 -1 -20 -20 -20 -20 -20 -19 -20 -20 -16 -20 -20 -20 -20 -20 -20 -20 -20 -20 -20 -20 -20 -20 -20
-20 -20 -20 -20 -20 -14 -20 -20 -20 -20 -20 -19 -20 -19 8 -20 -13 -6 -20 -20 -20 -20 -20 -20 -20 -20 -20 -20 -20 -20 -20 -20 -20 -11 -2 -20 -20 -20 -15 -20 -20 -20 -20 -20 -20 -20 -20 -20 -20 -20 -20 -20 -20 -20
-20 -20 -20 -20 -20 -20 -20 -20 -20 -20 2 -10 -12 -1 -1 -17 -11 -20 -20 -20 -20 -20 -20 -20 -20 -20 -20 -20 -20 -20 -20 -20 -20 -20 -16 -19 -20 -18 -19 -1 -7 -20 -17 -20 -20 -20 -20 5 -4 -16 -20 -20 -20 -20
-20 -20 -20 -20 -20 -20 -20 -20 -20 -20 -20 -20 -19 -20 -12 -20 -20 -11 -17 -20 -20 -20 -20 -20 -20 -20 -20 -20 -20 -20 -20 -20 -20 -20 -18 -20 -20 -20 -19 -20 -9 -19 -20 -20 -20 -20 -19 -20 0 -18 -20 -20 -20 -20
-20 -20 -20 -20 -20 -20 -20 -20 -20 -2 -20 -20 -14 -20 -20 -20 -14 -20 -20 -20 -20 -20 -20 -20 -20 -20 -20 -20 -20 -20 -20 -20 -20 -20 -20 -20 -20 -20 -20 -20 -20 -13 -20 -20 -19 -20 -20 -20 -20 -20 -20 -20 -20 -20
-20 -20 -20 -20 -20 -20 -20 -20 -20 -20 -20 -20 -20 -18 -20 -20 -14 -20 -19 -20 -20 -20 -20 -20 -20 -13 -18 -20 -20 -20 -20 -19 -20 -20 -20 -20 -20 -20 -20 -20 -20 -20 -20 -13 -20 -20 -20 -20 -20 -20 -20 -20 -20 -20
-20 -20 -20 -20 -11 -11 -12 -15 -11 -20 -20 -20 -20 -20 -20 -20 -20 -20 -20 -20 -20 -20 -20 -20 -6 -19 -18 -20 -14 -20 -20 -20 -20 -20 -20 -20 -20 -20 -20 -20 -20 -20 -20 -20 -20 -20 -20 -20 -20 -20 -20 -20 -20 -20
-20 -20 -20 -20 -20 -20 -20 -20 -20 -20 -20 -2 7 -20 -20 -20 -14 -20 -20 -20 -18 -20 -20 -20 -20 -20 -20 -19 -20 -20 -19 -20 -20 -20 -20 -20 -20 -20 -20 -20 -20 -11 -20 -20 -20 -20 -20 -20 -20 -20 -20 -20 -20 -20
-15 -20 -20 -20 -20 -20 -20 -20 -20 -19 -20 -20 -20 -20 -20 -20 -20 -20 -20 -20 -20 -20 -20 -20 -20 -20 -20 -20 -18 -16 -20 -20 -20 -19 -20 -20 -20 -20 -20 -20 -20 -20 -20 -20 -1 -0 -17 -20 -18 -4 -20 -20 -20 -20
-20 -20 -20 -20 -20 -20 -20 -20 -20 -20 -20 -20 -20 -20 -20 -20 -20 -20 -20 -20 -20 -20 -20 -20 -8 -18 -20 -20 -20 -5 -19 -17 -17 -20 -18 -20 -20 -20 -20 -20 -20 -20 -20 -20 -20 -20 -9 -20 0 -9 -15 -20 -20 -20
-19 -12 -9 -15 -20 -6 -20 -20 -20 -20 -20 -20 -20 -20 -20 -20 -20 -20 -20 -20 -20 -20 -20 -20 -13 -2 -11 -20 -11 -20 -20 -20 -20 -20 -20 -20 -20 -20 -20 -20 -20 -1 -18 -19 -20 -20 -13 -14 -1 -2 -17 -20 -17 -20
-20 -7 -19 -20 -18 -20 -20 -20 -20 -20 -20 -20 -20 -20 -20 -20 -20 -20 -20 -20 -20 -20 9 8 -5 -20 -20 -11 -20 -20 -12 -20 -20 -20 -20 -20 -20 -20 -20 -20 -20 -7 -19 -20 -20 -20 -20 -20 2 -0 -5 -20 -15 -3
2 -20 -4 3 -20 -20 -20 -20 -20 -20 -20 -20 -20 -20 -20 1 -18 -20 -20 -20 -20 -20 -20 -20 -7 3 -19 -20 -20 -20 -20 -20 -20 -20 -20 -20 -20 5 -10 -20 -20 -20 -20 -20 -20 -20 -20 -17 -18 -11 -20 -20 -20 -3

GFSWCAN_prec_radar_138.txt.gz
Reflectivity
-7 -7 9 15 17 -8 10 17 1 -20 -20 -20 -20 -16 -20 -13 10 13 -1 -1 7 3 -9 -7 -11 -20 -17 -8 -20 -19 20 12 23 9 19 8 1 -20 -20 -20 -20 -20 -20 -20 -20 -8 -20 -20 -20 -20 -8 -20 -20 -20
18 19 16 -16 -20 -20 -20 -20 -17 -20 -20 -20 -20 -12 10 6 13 20 10 -4 2 19 7 -20 -20 -20 -20 -15 7 26 37 17 24 26 7 -19 -20 -20 -20 -20 -20 -20 -20 -20 -20 -20 -20 -20 -20 -20 -20 -20 -20 -20
17 16 21 16 5 -20 -20 -20 -18 -20 -20 -20 -20 -20 -20 -12 12 20 10 13 14 20 1 -10 -20 -3 -5 1 -10 22 26 23 33 28 0 -20 -20 -20 -20 -20 -20 -20 -20 -20 -20 -20 -20 -20 -20 -20 -20 -20 -20 -20
-16 14 -9 -20 -20 -20 -15 -20 -20 -20 -20 -20 -12 9 9 8 9 16 5 17 25 22 15 9 14 7 21 26 25 22 35 1 -13 26 28 14 -20 -20 -20 -20 -20 -20 -20 -20 -20 -20 -20 -20 -20 -20 -20 -20 -20 -20
-20 -20 -20 -20 -3 -20 -20 -20 -20 -20 -20 -5 9 25 28 33 24 20 -1 17 -13 6 16 23 36 37 20 28 28 36 36 27 27 19 18 -10 -16 -20 -20 -20 -20 -20 -20 -20 -20 -20 -20 -20 -20 -20 -20 -20 -20 -20
2 -20 -20 -20 -20 -20 -20 -20 -20 -20 -2 11 34 31 35 32 34 35 24 3 6 22 4 18 38 27 20 40 33 33 32 36 23 4 -8 -20 -20 -20 -20 -20 -20 -20 -20 -20 -20 -20 -20 -20 -20 -20 -20 -20 -20 -20
1 -20 -20 -20 -20 -20 -20 -20 -20 -20 22 34 20 27 35 24 29 25 18 28 32 37 31 29 25 19 21 -4 8 22 19 -8 -12 -20 -20 -20 -20 -20 -20 -20 -20 -20 -20 -20 -20 -20 -20 -20 -20 -20 -20 -20 -20 -20
-20 -20 -20 -20 -20 -20 -20 -12 -17 7 21 17 15 -20 -20 3 -17 14 15 11 12 -2 -20 -14 -9 -19 -10 -18 -20 -20 -20 -20 -20 -20 -20 -20 -20 -20 -20 -20 -20 -20 -20 -20 -20 -20 -20 -20 -20 -20 -20 -20 -20 -20
-8 -20 -20 -20 -20 -20 -19 -20 -20 -20 -20 -1 -0 2 -17 -20 -20 -15 -20 -20 -20 -20 -20 -20 -20 -20 -20 -20 -20 -20 -20 -20 -20 -20 -20 -20 -20 -20 -20 -20 -20 -20 -20 -20 -20 -17 -15 5 -20 -20 -20 -20 -20 -20
12 -20 -20 -20 -20 -20 -20 -20 -20 -20 -20 -20 -20 -20 -20 -20 -20 -20 -20 -20 -20 -20 -20 -20 -20 -20 -20 -20 -17 -20 -20 -20 -20 -20 -20 -20 -20 -20 -20 -20 -20 -9 -14 -20 -16 21 -4 -20 -20 -20 -20 -20 -20 -20
-5 -20 -20 -11 -20 -20 -20 -20 -20 4 -4 -20 -20 -20 -20 -20 -20 -20 -20 -20 -20 -20 -20 -20 -20 -20 -20 -20 -20 -20 -20 -20 -20 -20 -20 -20 -20 -20 -20 -20 -20 -20 -10 17 12 -1 -20 -20 -20 -20 -20 -20 -20 -20
-2 -20 -20 -20 -20 -20 -20 -20 3 -14 -20 -20 -20 -20 -20 -20 -20 -20 -20 -20 -20 -20 -20 -20 -20 -20 -20 -20 -20 -20 -20 -20 -20 -20 -20 -20 -20 -20 -20 -20 -20 -20 8 6 -19 -20 -20 -20 -20 -20 -20 -20 -20 -20
-17 -20 -20 -20 -20 -20 -20 -20 -19 -20 -20 -20 -20 -20 -20 -20 -20 -20 -20 -20 -20 -20 -20 -16 -20 -20 -20 -20 -20 -20 -20 -20 13 12 14 -6 1 -20 -20 -20 -20 -20 -5 6 -20 -20 -20 -20 -20 -20 -20 -20 -20 -20
11 -5 -6 -7 -20 -4 -19 -20 -20 -4 1 -5 -5 -18 -12 -19 -18 -20 -10 13 21 24 28 -0 -9 -17 -20 -20 -20 -20 2 -20 -20 -20 1 -20 -20 -20 -20 -19 -15 -7 -15 -20 -20 -20 -20 -20 -20 -20 -20 -20 -20 -20
13 12 11 -11 -20 -20 -20 -20 -10 1 5 -3 -2 22 12 26 15 -1 -5 -18 3 36 31 26 26 27 16 4 8 -4 -10 -20 -20 -20 -20 -20 -20 -20 -20 -20 -20 -20 -20 -20 -20 -20 -20 -20 -20 -20 -20 -20 -20 -20
-15 -16 -6 -5 -7 3 -19 6 18 30 33 30 20 -3 -20 -20 -7 -20 -14 -19 -9 39 13 -13 -20 -13 -6 -17 -20 -20 -20 -20 -20 -20 -20 -20 -20 -20 -20 -20 -20 -20 -20 -20 -20 -20 -20 -20 -20 -20 -20 -20 -20 -20
-20 -20 -20 -20 -20 -20 7 5 34 35 22 -15 -20 -20 -20 -20 -20 -20 -20 -20 -20 -12 -20 -20 -20 -20 -20 -20 -20 -20 -20 -20 -20 -20 -20 -20 -20 -20 -17 -19 -20 -20 -20 -20 -20 -20 -20 -20 -20 -20 -20 -20 -20 -20
-20 -17 -0 1 -15 3 12 21 29 17 -16 -20 -20 -20 -20 -20 -20 -20 -20 -20 -20 -20 -20 -20 -20 -20 -20 -20 -20 -20 -18 1 -20 -20 -20 -20 -20 -20 -20 -20 -20 -20 -20 -16 -20 -8 -20 -20 -20 -20 -20 -20 -20 -20
-20 -20 -20 -20 -20 25 30 34 -3 -10 -20 -20 -20 -20 -20 -20 -20 -20 -12 -20 -20 -20 -20 -20 -20 -20 -20 -20 -20 -20 -20 -20 -20 -20 -20 -20 -20 -20 -20 -20 -20 -20 -20 -20 -20 -20 -20 -20 -20 -20 -20 -20 -20 -20
-20 -20 -20 -20 -18 7 23 -20 -20 -20 -20 -20 -20 -16 -20 -10 -20 -20 -15 -20 -20 -20 -20 -20 -20 -20 -20 -20 -20 -20 -20 -20 -20 -20 -9 -14 -15 -20 -18 -20 -20 -20 -20 -5 -5 7 -20 -20 -20 -20 -20 -20 -20 -20
-20 -20 -20 -20 -20 -20 -20 -20 -20 -20 -20 -20 -20 -20 -20 -20 -20 -20 -20 -20 -20 -20 -20 -20 -20 -20 -20 -20 -20 -20 -20 -20 -20 -20 -17 -18 -17 -20 -20 -20 -20 -20 -20 -20 -20 -18 -15 -20 -20 -20 -20 -20 -20 -20
-20 -20 -20 -20 -20 9 -1 -20 -20 -20 -20 -20 -20 -20 -6 -20 -20 -20 -20 -20 -20 -20 -20 -20 -20 -20 -20 -20 -20 -20 -20 -20 -20 -16 -20 -20 -20 -17 -17 -18 -18 -20 -20 -20 -20 -20 -20 -20 -20 -20 -20 -20 -20 -20
-20 -20 -20 -20 -20 -20 -20 -20 -20 -20 -20 -20 -20 -20 -20 -20 -20 -20 -20 -20 -20 -20 -20 -20 -20 -20 -20 -20 -20 -20 -20 -20 -20 -19 -18 -19 -20 -20 -20 -20 -19 -20 -20 -20 -20 -20 -20 -2 -6 -12 -20 -20 -20 -20
-20 -20 -20 -20 -20 -20 -20 -20 -20 -20 -20 -20 -20 -20 -20 -20 -20 -20 -20 -20 -20 -20 -20 -20 -20 -20 -20 -20 -20 -20 -20 -20 -20 -20 -20 -19 -20 -20 -20 -20 -12 -6 -13 -19 -20 -20 -20 -20 2 -15 -20 -20 -20 -20
-20 -20 -20 -20 -20 -20 -20 -20 -20 -20 -20 -20 -20 -20 -20 -20 -20 -20 -20 -20 -20 -20 -20 -20 -20 -20 -20 -20 -20 -20 -20 -20 -20 -0 -20 -20 -20 -20 -20 -20 -20 -20 -19 -20 -18 -20 -20 -20 -20 -20 -20 -20 -20 -20
-20 -20 -20 -20 -20 -20 -20 -20 -20 -20 -20 -20 -20 -20 -20 -20 -20 -20 -20 -20 -20 -20 -20 -20 -20 -20 -20 -20 -20 -20 -20 -20 -20 -20 -20 -20 -20 -3 -20 -20 -20 -20 -20 -20 -20 -20 -20 -20 -20 -20 -20 -20 -20 -20
-20 -20 -20 -20 -20 -20 -20 -20 -20 -20 -20 -20 -20 -20 -20 -20 -20 -20 -20 -20 -20 -20 -20 -20 -20 -20 -18 -19 -20 -20 -20 -20 -20 -20 -20 -20 -20 -20 -20 -20 -20 -20 -20 -20 -20 -20 -20 -20 -20 -20 -20 -20 -20 -20
-20 -20 -20 -20 -20 -20 -20 -20 -20 -20 -20 -20 -20 -20 -20 -20 -20 -20 -20 -20 -20 -20 -20 -20 -20 -20 -20 -20 -20 -20 -19 -20 -20 -20 -20 -20 -20 -20 -20 -20 -20 -20 -20 -20 -20 -20 -20 -20 -20 -20 -20 -20 -20 -20
-20 -20 -20 -20 -20 -20 -20 -20 -20 -20 -20 -20 -20 -20 -20 -20 -20 -20 -20 -20 -20 -20 -20 -20 -20 -20 -20 -20 -20 -9 -20 -18 -20 -20 -20 -20 -20 -20 -20 -20 -20 -20 -20 -20 -20 -4 -18 -18 -20 -20 -20 -20 -20 -20
-20 -20 -20 -20 -20 -20 -20 -20 -20 -20 -20 -20 -20 -20 -20 -20 -20 -20 -20 -20 -20 -20 -20 -20 -20 -20 -20 -19 -20 -8 -20 -20 -6 -19 -14 -16 -20 -19 -20 -20 -20 -20 -20 -20 -20 -20 -11 -20 -20 -20 -20 -20 -20 -20
-20 -20 -20 -20 -20 -20 -20 -20 -20 -20 -20 -20 -20 -20 -20 -20 -20 -20 -20 -20 -20 -20 -20 -20 -20 -20 -20 -17 -20 -19 -20 -19 -14 -5 -17 -20 -20 -20 -20 -20 -20 -20 -20 -20 -20 -20 -20 -20 -20 -20 -20 -20 -20 -20
-20 -20 -20 -20 -20 -20 -20 -20 -20 -20 -20 -20 -20 -20 -20 -20 -20 -20 -20 -20 -20 -20 -20 -20 -13 -5 -9 5 -10 -17 8 -18 -20 -20 -20 -20 -20 -20 -20 -20 -20 -20 -20 -20 -20 -20 -20 -20 -20 -20 -20 -20 -20 -20
-20 -20 -5 -5 -20 -20 -20 -20 -20 -20 -20 -20 -20 -20 -20 -20 -20 -20 -20 -20 -20 -20 -20 -20 -20 -20 -10 -3 -10 -20 -14 -20 -20 -20 -9 -1 -15 -19 -20 -20 -20 -20 -20 -20 -20 -20 -20 -20 -20 -20 -20 -20 -20 -20

GFSWCAN_prec_radar_141.txt.gz
Reflectivity
15 15 14 16 16 16 18 13 -2 -3 -20 -20 -20 -20 -20 -20 -20 -20 -13 -20 -7 1 -18 -10 -11 -10 -20 -20 -9 -20 -20 -20 -20 22 17 19 23 11 -5 -20 -20 -20 -20 -13 -5 -5 -20 -20 -17 -20 -20 -20 -20 -20
12 15 19 17 16 17 21 19 17 15 14 -19 -20 -19 -17 -9 -14 -7 10 -20 1 16 -20 -11 -20 -20 -20 -20 -20 -18 -18 -20 15 28 8 2 17 -5 10 -14 -20 -20 -20 -20 -20 -20 -20 -20 -20 -20 -20 -20 -20 -20
18 18 15 15 17 19 17 -14 4 -1 -13 7 -20 -1 2 -4 15 20 5 -20 -0 10 -8 3 -4 -20 -20 -20 -20 2 -16 0 6 6 40 28 10 -13 -14 2 -20 -20 -20 -20 -20 -20 -20 -20 -20 -20 -20 -20 -20 -20
-17 8 10 15 24 -20 -20 -20 -20 -20 4 -20 -20 -20 -20 -15 -10 -10 2 13 8 27 15 -18 -20 -20 -20 -20 -20 -20 -20 -2 16 24 39 27 20 -11 -1 -9 -20 -20 -20 -20 -20 -20 -20 -20 -20 -20 -20 -20 -20 -20
-20 13 8 -20 -20 -20 -20 -20 -20 -20 -20 -20 -20 -7 7 14 20 20 25 25 29 26 13 7 21 -3 -2 -8 -9 -20 3 12 11 21 27 27 34 13 -13 -10 -20 -20 -20 -20 -20 -20 -20 -20 -20 -20 -20 -20 -20 -20
-20 -20 -20 -20 -20 -20 -20 -20 -20 -20 -20 -15 9 5 32 35 34 40 30 -2 -3 19 12 13 22 28 39 33 38 31 -3 -11 24 31 19 17 5 1 14 6 -20 -20 -20 -20 -20 -20 -20 -20 -20 -20 -20 -20 -20 -20
0 -20 -20 -20 -20 -20 -7 -20 -20 -20 -14 -15 32 34 37 19 16 19 20 -7 -14 11 24 19 1 37 37 38 34 20 37 39 37 30 12 -11 -20 -20 -20 -20 -20 -20 -20 -20 -20 -20 -20 -20 -20 -20 -20 -20 -20 -20
14 -20 -20 -20 -20 -20 -20 -20 -20 -20 -1 30 26 24 18 19 38 38 37 32 29 27 23 20 5 13 16 12 30 38 31 32 25 -9 -20 -20 -20 -20 -20 -20 -20 -20 -20 -20 -20 -20 -20 -20 -20 -20 -20 -20 -20 -20
13 -10 -20 -20 -20 -20 -20 -13 -20 -8 12 30 10 -8 -19 -4 -5 -14 -8 4 5 18 -13 -20 -20 -7 2 -7 -5 7 5 -1 -20 -20 -20 -20 -20 -20 -20 -20 -20 -20 -20 -20 -20 -20 -20 -20 -20 16 -0 2 -17 -20
13 -20 -20 -20 -14 -4 -20 -11 1 -15 9 -7 9 -18 -20 -20 -20 -20 -20 -8 -20 -20 -20 -20 -20 -20 -20 -20 -20 -20 -20 -20 -20 -20 -20 -20 -20 -20 -20 -20 -20 -20 -20 -20 -20 -20 -20 23 9 11 -9 -20 -20 -20
-15 -20 -20 -20 -20 -20 -20 -20 -20 -20 -20 -20 -20 -20 -20 -20 -20 -20 -20 -20 -20 -20 -20 -20 -20 -20 -20 -20 -20 -20 -20 -20 -20 -20 -20 -20 -20 -20 -20 -20 -20 -20 -20 -20 -20 8 -4 -18 -20 -20 -20 -20 -20 -20
-20 -19 -20 -20 -20 -20 -20 -20 -13 -20 -20 -20 -14 -20 -20 -20 -20 -20 -20 -20 -20 -20 -20 -20 -20 -20 -20 -20 -20 -20 -20 -20 -20 -20 -20 -20 -20 -20 -20 -20 -20 -20 -20 -20 -4 -14 -20 -20 -20 -20 -20 -20 -20 -20
2 -3 -20 -20 -20 -20 -20 -19 6 12 -20 -20 -20 -20 -20 -20 -20 -20 -20 -20 -20 -20 -20 -20 -20 -20 -20 -20 -20 -20 -20 -20 -20 -20 -20 -20 -20 -20 -20 -20 -20 -20 -20 -20 -20 -20 -20 -20 -20 -20 -20 -20 -20 -20
7 -11 -20 -20 -20 -20 -20 -20 3 11 -20 -20 -20 -20 -20 -20 -20 -20 -20 -20 -20 -2 -18 11 -10 -20 -5 -20 -20 -20 -20 -20 -20 -20 -20 -1 -20 -20 -20 -20 -20 -20 -20 -9 3 -20 -20 -20 -20 -20 -20 -20 -20 -20
-2 -20 -16 -20 -20 -20 -20 -20 -12 -6 -8 -20 -7 -0 4 9 1 10 -4 -20 -20 -8 23 17 25 -1 -12 -20 -20 -20 1 -4 -20 -20 -20 -20 -20 -20 -20 -18 -20 -20 -20 -20 -20 -20 -20 -20 -20 -20 -20 -20 -20 -20
-20 -0 -11 -20 -20 -20 -13 1 -14 -15 1 4 -19 17 8 -18 -7 -13 -20 -9 25 29 28 28 12 8 -4 -18 -15 -20 -20 -20 -20 -20 -20 -20 -20 -20 -20 -20 -20 -20 -20 -20 -20 -20 -20 -20 -20 -20 -20 -20 -20 -20
10 -13 -20 -18 5 10 7 6 -17 0 -5 21 2 -18 -20 -20 -20 -20 -20 -20 11 24 7 -20 -20 -20 -20 -20 -20 -20 -20 -20 -20 -20 -20 -20 -20 -20 -10 -17 -20 -20 -20 -20 -20 -20 -20 -20 -20 -20 -20 -20 -20 -20
-19 -20 -20 -13 -2 3 13 -4 10 -1 2 -20 -20 -20 -20 -20 -20 -20 -20 -20 -16 3 -20 -20 -20 -20 -20 -20 -20 -20 -20 -20 -20 -20 -20 -20 -20 -20 -20 -20 -20 -20 -20 -20 -20 -20 -20 -20 -20 -20 -20 -20 -20 -20
-20 -20 -20 -8 -19 24 16 12 -1 -17 -20 -20 -20 -20 -20 -20 -20 -20 -18 -19 -20 13 -7 -20 -20 -20 -20 -20 -20 -20 -20 -20 -20 -20 -20 -20 -20 -20 -20 -20 -20 -20 -20 -20 -20 -20 -20 -20 -20 -20 -20 -20 -20 -20
-20 -20 -20 -20 -20 5 12 1 9 -17 -20 -20 -20 -20 -20 -16 -20 -20 -15 -5 -20 -11 -20 -20 -20 -20 -20 -20 -20 -20 -20 -20 -20 -20 -14 -20 -20 -20 -20 -20 -20 -20 -20 -20 -20 5 -20 -20 -20 -20 -20 -17 -20 -20
-20 -20 -20 -20 -20 -20 -20 -20 -20 -20 -20 -20 -20 -20 -20 -20 -20 -20 -20 -20 -20 -20 -20 -20 -20 -20 -20 -20 -20 -20 -20 -20 -20 -20 -20 -20 -19 -18 -18 -20 -20 -20 -20 -20 -20 -14 -14 -20 -20 -20 -20 -20 -20 -20
-20 -20 -20 -20 -20 4 16 -20 -20 -20 -20 -20 -20 -20 -20 -20 -20 -20 -20 -20 -20 -20 -20 -20 -20 -20 -20 -20 -20 -20 -20 -20 -20 -20 -20 -20 -20 -18 -20 -20 -20 -20 -20 -20 -20 -20 -20 -20 -20 -20 -20 -20 -14 -20
-20 -20 -20 -20 -12 -20 -20 -20 -20 -20 -20 -20 -20 -20 -20 -20 -20 -20 -20 -20 -20 -20 -20 -20 -20 -20 -20 -20 -20 -20 -20 -20 -20 -20 -20 -20 -20 -20 -20 -20 -20 -20 -20 -20 -20 -20 -20 -19 -17 -20 -20 -20 -20 -20
-20 -20 -20 -20 -20 -20 -20 -20 -20 -20 -20 -20 -20 -20 -20 -20 -20 -20 -20 -20 -20 -20 -20 -20 -20 -20 -20 -20 -20 -20 -20 -20 -20 -20 -20 -20 -20 -20 -20 -20 -20 -20 -19 -19 -20 -20 -20 -20 -20 -20 -20 -20 -20 -20
-20 -20 -20 -20 -20 -20 -20 -20 -20 -20 -20 -20 -11 -20 -20 -20 -20 -20 -20 -20 -20 -20 -20 -20 -20 -20 -20 -20 -20 -20 -20 -20 -20 -20 -20 -20 -20 -20 -20 -20 -19 -20 -20 -20 -18 -20 -20 -20 -20 -20 -20 -20 -20 -20
-20 -20 -20 -20 -20 -20 -20 -20 -20 -20 -20 -20 -20 -20 -20 -20 -20 -20 -20 -20 -20 -20 -20 -12 -20 -19 -20 -18 -20 -20 -20 -20 -20 -20 -20 -20 -20 -20 -20 -20 -20 -20 -20 -20 -20 -20 -20 -20 -20 -20 -20 -20 -20 -20
-20 -20 -20 -20 -20 -20 -20 -20 -20 -20 -20 -20 -20 -20 -20 -20 -20 -20 -20 -20 -20 -20 -20 -20 -20 -20 -8 -20 -20 -20 -20 -20 -20 -20 -20 -20 -20 -20 -20 -20 -20 -20 -20 -20 -20 -20 -20 -20 -20 -20 -20 -20 -20 -20
-20 -20 -20 -20 -20 -20 -20 -20 -20 -20 -20 -20 -20 -20 -20 -20 -20 -20 -20 -20 -20 -20 -20 -20 -20 -20 -20 -20 -20 -20 -20 -20 -20 -20 -20 -20 -20 -20 -20 -20 -20 -20 -20 -20 -20 -20 -20 -20 -20 -20 -20 -20 -20 -20
-20 -20 -20 -20 -20 -20 -20 -20 -20 -20 -20 -20 -20 -20 -20 -20 -20 -20 -20 -20 -20 -20 -20 -20 -20 -20 -20 -20 -20 -20 -20 -18 -19 -20 -20 -20 -20 -20 -20 -20 -20 -20 -20 -20 -20 -20 -19 -19 -20 -20 -20 -20 -20 -20
-20 -20 -20 -20 -20 -20 -20 -20 -20 -20 -20 -20 -20 -20 -20 -20 -20 -20 -20 -20 -20 -20 -20 -20 -20 -20 -20 -20 -8 -20 -20 -9 -19 -19 -20 -20 -20 -20 -20 -20 -20 -20 -20 -20 -20 -20 -11 -19 -20 -20 -20 -20 -20 -20
-20 -20 -20 -20 -20 -20 -20 -20 -20 -20 -20 -20 -20 -20 -20 -20 -20 -20 -20 -20 -20 -20 -20 -20 -20 -20 -20 -20 4 -20 -15 -20 -20 -19 -8 -20 -20 -20 -20 -20 -20 -20 -20 -20 -20 -20 -20 -20 -20 -20 -20 -20 -20 -20
-20 -20 -20 -20 -20 -20 -20 -20 -20 -20 -20 -20 -20 -20 -20 -20 -20 -20 -20 -20 -20 -20 -20 -20 -20 -20 -19 -20 -16 -20 -20 -20 -20 -20 -20 -5 -14 -20 -20 -20 -20 -18 -20 -20 -20 -20 -20 -20 -20 -20 -20 -20 -20 -20
-20 -20 -20 -20 -20 -20 -20 -20 -20 -20 -20 -20 -20 -20 -20 -20 -20 -20 -20 -20 -20 -20 -20 -20 -20 -20 -19 -20 -20 -10 1 -18 -20 -20 -20 -20 -20 -20 -20 -20 -19 -15 -20 -20 -20 -20 -20 -20 -20 -20 -20 -20 -20 -20

GFSWCAN_prec_radar_144.txt.gz
Reflectivity
20 16 3 10 -15 7 15 12 9 12 -20 -20 -20 -20 -20 -20 -20 -18 -13 -20 5 6 -11 -20 -20 -20 -20 -20 -20 -20 -20 -20 -20 4 -2 -12 -3 -20 -15 -11 7 1 11 12 15 -10 -19 -20 -20 -20 -20 -20 -20 -20
19 17 17 23 17 18 16 32 19 16 -16 14 8 5 -20 -20 -20 8 6 -20 -17 6 -4 -20 -20 -20 -20 -20 -20 -20 -19 -20 -20 2 -5 -13 18 -9 10 17 34 21 -20 -20 -20 -20 -20 -20 -20 -20 -20 -20 -20 -20
16 16 15 18 19 20 21 21 17 14 15 17 13 -20 -20 -18 0 14 -16 -18 -3 2 -1 -1 -5 -20 -20 -20 -20 -2 -15 -17 -20 -20 -20 4 10 17 5 -20 -20 -10 10 9 -20 -20 -20 -20 -20 -20 -20 -20 -20 -20
-15 -20 -3 16 -2 11 16 11 18 18 18 18 -11 -14 -3 -17 -6 15 14 17 8 19 -0 -20 -20 -20 -20 -20 -20 -20 -20 -20 -20 -6 11 7 11 21 28 -5 -18 -15 14 -6 -20 -20 -20 -20 -20 -20 -20 -20 -20 -20
-20 -20 13 10 -20 -1 -14 -20 -20 -20 -20 -13 -17 -20 -20 -20 -20 -20 -20 -17 -14 4 -1 -20 -20 -20 -20 -20 -20 -20 -20 -0 4 12 9 2 -0 11 28 21 -19 -20 -20 -20 -20 -20 -20 -20 -20 -20 -20 -20 -20 -20
-20 11 13 15 -0 11 -9 4 -20 -20 -20 -20 -20 -20 1 6 13 24 29 24 16 18 24 22 -16 -20 -20 -20 -20 -20 24 9 8 13 7 4 -4 21 19 24 23 15 5 -11 -20 -20 -20 -20 -20 -20 -20 -20 -20 -20
-20 9 -13 -20 -20 -20 4 -20 -20 -20 -20 -20 -14 -20 2 32 33 30 14 16 -1 16 26 21 0 22 32 30 26 29 33 25 20 9 12 11 26 31 11 -18 -20 20 12 -20 -20 -20 -20 -20 -20 -20 -20 -20 -20 -20
-0 -20 -20 -10 -20 -20 -20 -20 -20 -20 -20 -20 -14 18 31 36 23 21 16 27 27 23 32 19 -16 6 35 29 28 34 17 23 22 19 21 18 27 15 -14 -20 -20 -10 5 -15 -20 -20 -20 -20 -20 -20 -20 -20 -20 -20
19 14 -17 -20 -20 -20 -20 -20 -20 -20 -20 -8 33 25 27 14 26 -5 21 30 33 22 -9 -20 -20 3 17 21 27 27 26 24 26 23 24 18 11 -20 -20 -20 -20 -20 -20 -20 -20 -20 -20 -20 -20 -20 -20 -20 -20 -20
14 9 -20 -20 -20 -20 -11 -0 -17 -20 10 26 16 17 -5 -20 -20 -20 -2 6 23 18 7 -20 -20 -20 -13 -0 9 14 16 18 21 15 -4 -20 -20 -20 -20 -20 -20 -20 -20 -20 -20 -20 -20 -20 -20 -20 -20 -20 -20 -17
-3 -20 -20 -20 -20 -20 -14 -9 -13 -12 -1 -13 -3 2 -20 -16 -14 -13 -17 -20 -20 -20 -20 -20 -20 -20 -20 -20 -20 -20 -20 -18 -3 -17 -20 -20 -20 -20 -20 -20 -20 -20 -20 -20 -20 -20 -20 -20 -20 -20 -20 -20 -20 -20
-20 -20 -20 -20 -20 -20 -20 -20 -15 -20 -20 -0 11 1 -20 -20 -20 -20 -20 -20 -20 -20 -20 -20 -20 -20 -20 -20 -20 -20 -20 -20 -20 -20 -20 -20 -20 -20 -20 -20 -20 -20 -20 -20 -20 -20 -20 -20 -20 -20 -20 -20 -20 -20
6 -20 -20 -20 -20 -20 -20 -20 -2 4 9 -20 -20 -20 -20 -20 -20 -20 -20 -20 -20 -20 -20 -20 -12 -20 -20 -20 -20 -20 -20 -20 -20 -20 -20 -20 -20 -20 -20 -20 -20 -20 -20 -20 -20 -20 -20 -20 -20 -20 -20 -20 -20 -20
4 7 -20 -20 -20 -20 -20 -20 -15 -10 -20 -20 -20 -20 -20 -20 -20 -20 -20 -20 -19 -20 -20 -20 2 -8 -20 -20 -20 -20 -20 -20 -17 -20 -20 -20 -20 -20 -20 -20 -20 -20 -19 -20 -20 -20 -20 -20 -20 -20 -20 -20 -20 -20
8 10 -8 -20 -20 -20 7 -20 -0 6 -20 -20 -20 -20 -20 -20 -7 -20 -20 -20 -15 -13 13 19 13 -19 -20 -20 -20 -20 -14 -8 -20 -20 -20 -20 -20 -20 -20 -20 -20 -20 -20 -20 -20 -20 -20 -20 -20 -20 -20 -20 -20 -20
-9 -9 -20 -20 -20 -20 -13 7 -12 -20 -9 -10 -7 -20 -20 -20 -20 -20 -20 -20 -5 8 16 13 7 8 -18 -20 -20 -20 -20 -20 -20 -20 -20 -20 -20 -20 -20 -20 -20 -20 -20 -20 -20 -20 -20 -20 -20 -20 -20 -20 -20 -20
-1 -3 5 -1 -20 -20 2 13 -19 -20 -14 -20 -20 -20 -18 -20 -20 -20 -20 -20 16 22 28 0 -20 -20 -20 -20 -20 -20 -20 -20 -20 -20 -20 -20 -20 -20 -20 -20 -20 -20 -20 -20 -20 -20 -20 -20 -20 -20 -20 -20 -20 -20
-5 19 -2 10 4 5 14 -6 12 9 -3 -20 -20 -20 -20 -20 -20 -20 -20 -20 1 -15 -0 -19 -20 -20 -20 -20 -20 -20 -20 -20 -20 -20 -20 -20 -20 -20 -20 -20 -20 -20 -20 -20 -20 -20 -20 -20 -20 -20 -20 -20 -20 -20
-20 -20 -6 17 -3 25 22 23 7 -13 -20 -20 -20 -20 -20 -20 -20 -20 -20 -20 -20 -20 -6 -20 -20 -20 -20 -20 -20 -20 -20 -20 -20 -20 -20 -20 -20 -20 -20 -20 -20 -20 -20 -20 -20 -20 -20 -20 -20 -20 -20 -20 -20 -20
-20 -20 -20 19 10 21 16 -4 17 0 -20 -20 -20 -20 -20 -20 -20 -20 -20 -15 -18 -20 -18 -20 -20 -20 -20 -20 -20 -20 -20 -20 -20 -20 -20 -0 -8 -20 -20 -20 -20 -20 -20 -20 -20 -1 -20 -20 -20 -20 -20 -20 -20 -20
-20 -20 -20 -20 14 13 -20 -19 -9 -20 -20 -20 -20 -20 -20 -20 -20 -20 -20 -20 -6 5 -20 -20 -20 -20 -20 -20 -20 -20 -20 -20 -20 -20 -20 -20 -17 -20 -19 -20 -20 -20 -20 -20 -20 -13 -1 -20 -20 -20 -20 -20 -20 -20
-20 -20 -20 -20 -20 -7 -15 -20 -20 -20 -20 -20 -20 -20 -20 -20 -20 -20 -20 -20 -17 -20 -20 -20 -20 -20 -20 -20 -20 -20 -20 -20 -20 -20 -20 -20 -20 -19 -18 -20 -20 -20 -20 -20 -20 -20 -20 -20 -20 -20 -20 -20 -20 -20
-20 -20 -20 -20 -20 -20 -19 -20 -20 -20 -5 -20 -20 -20 -20 -20 -20 -20 -20 -20 -20 -20 -20 -20 -20 -20 -20 -20 -20 -20 -20 -20 -20 -20 -20 -20 -20 -20 -20 -20 -20 -20 -20 -20 -20 -20 -20 -20 -20 -20 -20 -20 -20 -20
-20 -20 -20 -20 -20 -20 -20 -20 -20 -20 -20 -20 -20 -20 -20 -20 -20 -20 -20 -20 -20 -20 -20 -20 -20 -20 -20 -20 -20 -20 -20 -20 -20 -20 -20 -20 -20 -20 -20 -20 -20 -20 -20 -20 -20 -20 -20 -20 -20 -20 -20 -20 -20 -20
-20 -20 -20 -20 -20 -20 -20 -20 -20 -20 -20 -20 -11 -20 -20 -20 -20 -20 -20 -20 -20 -20 -20 -20 -20 -20 -20 -20 -20 -20 -20 -20 -20 -20 -20 -20 -20 -16 -12 -20 -20 -20 -20 -19 -18 -20 -20 -20 -19 -20 -20 -20 -20 -20
-20 -20 -20 -20 -20 -20 -20 -20 -20 -20 -20 -20 -20 -20 -20 -20 -20 -20 -20 -20 -20 -20 -20 -20 -20 -20 -19 -19 -20 -20 -20 -20 -20 -20 -20 -20 -20 -20 -19 -20 -20 -20 -18 -20 -20 -19 -20 -20 -20 -20 -20 -20 -20 -19
-20 -20 -20 -20 -20 -20 -20 -20 -20 -20 -20 -20 -20 -20 -20 -20 -20 -20 -20 -20 -20 -20 -20 -20 -20 -20 -20 -20 -20 -20 -20 -20 -20 -20 -20 -20 -19 -20 -20 -20 -20 -20 -20 -20 -20 -20 -20 -20 -20 -20 -20 -20 -20 -20
-20 -20 -20 -20 -20 -20 -20 -20 -20 -20 -20 -20 -20 -20 -20 -20 -20 -20 -20 -20 -20 -20 -20 -20 -20 -20 -20 -20 -20 -20 -20 -20 -20 -20 -20 -20 -20 -20 -20 -20 -20 -20 -20 -20 -20 -20 -20 -20 -20 -20 -20 -20 -20 -20
-20 -20 -20 -20 -20 -20 -20 -20 -20 -20 -20 -20 -20 -20 -20 -20 -20 -20 -20 -20 -20 -20 -20 -20 -20 -20 -8 -20 -20 -20 -20 -20 -20 -20 -20 -20 -20 -20 -20 -20 -20 -20 -20 -20 -20 -18 -20 -20 -20 -20 -20 -20 -20 -20
-20 -15 -16 -20 -20 -20 -20 -20 -20 -20 -20 -20 -20 -20 -20 -20 -20 -20 -20 -20 -20 -20 -20 -20 -20 -20 -20 -20 -20 -20 -20 -20 -20 -9 -15 -20 -20 -20 -20 -20 -20 -20 -20 -20 -20 -20 -20 -20 -20 -19 -19 -20 -20 -20
-20 -20 -20 -20 -20 -20 -20 -20 -20 -20 -20 -20 -20 -20 -20 -20 -20 -20 -20 -20 -20 -20 -20 -20 -20 -20 -20 -20 -20 -20 -11 -20 -20 -19 -16 -16 -20 -20 -20 -20 -20 -20 -20 -20 -20 -20 -20 -20 -20 -20 -20 -20 -20 -20
-20 -20 -20 -20 -20 -18 -20 -20 -20 -20 -20 -20 -20 -20 -20 -20 -20 -20 -20 -20 -20 -20 7 -8 -20 -20 -20 -20 -20 -20 -20 -20 -20 -20 -20 -20 -20 -20 -20 -17 -18 -20 -20 -20 -20 -20 -20 -20 -20 -20 -20 -20 -20 -20
3 -14 -18 -20 -20 -18 -20 -20 -20 -20 -20 -20 -20 -20 -20 -20 -20 -20 -20 -20 -20 -20 -20 -20 -20 -20 -20 -20 -20 -20 -20 -20 -20 -20 -19 -20 -20 -20 -19 -20 -20 -20 -20 -17 -18 -20 -20 -20 -20 -20 -20 -20 -20 -20

GFSWCAN_prec_radar_147.txt.gz
Reflectivity
16 16 15 16 14 12 13 15 2 -20 2 -20 -20 -20 -20 -20 -10 -20 -20 -20 -3 -15 -20 -20 -20 -20 -20 -20 -20 -20 -20 -20 -20 -6 -14 -20 -20 -20 -20 -20 -20 -20 -14 27 25 23 18 -20 -20 1 -14 -20 -20 -20
16 14 16 16 11 -20 7 13 -17 -11 14 -20 -20 -20 -20 -20 -20 -20 -17 -20 -8 14 -9 -20 -20 -20 -20 -20 -20 -20 -20 -20 -20 -20 -20 -20 -20 -20 -18 -19 6 -9 -19 -20 -20 -19 6 18 7 -19 -20 -20 -20 -20
-2 13 12 -9 -6 13 14 17 9 -16 18 3 -17 -20 -20 -20 -20 -20 -5 -20 -1 17 -10 -0 -10 -20 -20 -20 -20 -20 -20 -20 -20 -20 -20 -20 -20 -20 -20 -20 -20 -20 -8 -15 9 -12 -20 13 -16 -20 -20 -20 -20 -20
10 -10 -20 -4 11 14 5 19 13 20 8 11 4 14 12 18 13 19 -2 2 -10 -8 3 -20 -20 -20 -20 -20 -20 -20 -20 -20 -20 -12 -9 -8 -1 -20 -20 -17 -3 -17 -2 21 -20 -20 -20 -20 -20 -20 -20 -20 -20 -20
12 10 -17 14 16 16 24 17 15 5 7 22 19 18 13 -12 -11 14 -9 12 5 -9 -18 -20 -20 -20 -20 -20 -20 -20 -20 -20 8 14 12 11 -1 -0 -15 -9 -8 11 -12 18 -13 -2 28 -4 -20 -20 -20 -20 -20 -20
17 -19 -14 15 14 5 9 -19 -20 -20 5 -19 -20 -20 -20 -20 -20 10 -19 -20 -20 -19 17 6 -20 -20 -20 -20 -20 -20 -20 -20 4 9 10 7 3 10 4 4 -14 -20 -16 9 14 17 -18 -15 -20 -20 -20 -20 -20 -20
-14 -20 -20 17 18 11 0 -1 -20 -20 -20 -20 -20 -20 -20 -7 5 10 1 3 24 5 24 14 -1 7 11 15 19 22 -12 15 6 13 9 3 2 -14 6 -15 10 -7 30 32 28 8 -9 -16 -20 -20 -20 -20 -20 -20
0 12 20 -18 -20 -20 -19 -20 -20 -20 -20 -20 -20 -20 -4 16 34 29 10 17 30 36 34 17 -16 -16 -7 27 27 34 22 21 20 14 -2 7 -4 10 4 -3 -8 -1 13 19 -9 3 -19 -20 -20 -20 -20 -20 -20 -20
19 16 11 -20 -20 -20 -20 -20 -20 -20 -20 -20 -20 12 33 30 25 -19 15 23 34 26 3 5 -18 -20 -6 20 34 26 27 21 12 0 11 13 11 16 -18 -5 22 9 -19 -17 -14 -20 -20 -20 -20 -20 -20 -20 -20 -20
15 -19 -20 -20 -20 -20 -20 -20 -20 -20 -20 -8 25 23 -1 16 2 10 1 6 21 24 -8 -14 -20 -18 -15 7 12 11 18 15 10 10 -8 9 -17 10 3 -20 -20 -20 -20 -20 -20 -20 -20 -20 -20 -20 -20 -20 -20 -20
-20 -8 -20 -20 -20 -17 -13 -11 -15 -14 22 -5 -16 -14 -20 -15 -5 -20 -20 -19 -20 -20 -20 -20 -20 -20 -20 -18 -4 -1 -2 -20 -20 3 14 -19 -4 -20 -20 -20 -20 -20 -20 -20 -20 -20 -20 -20 -20 -20 -20 -20 -20 -20
3 -20 -20 -20 -16 -3 6 -10 -19 5 -16 -12 -14 -18 -20 -20 -20 -20 -20 -20 -20 -20 -20 -20 -20 -20 -20 -20 -20 -20 -20 -18 -20 -20 -20 -20 -20 -20 -20 -20 -20 -20 -20 -20 -20 -20 -20 -20 -20 -20 -20 -20 -20 -20
14 -9 -20 -20 -20 -20 -20 -20 -1 4 11 -20 -16 -13 -20 -20 -20 -20 -20 -20 -20 -20 -20 -20 -20 -20 -20 -20 -20 -20 -20 -20 -20 -20 -20 -20 -20 -20 -20 -20 -20 -20 -20 -20 -20 -20 -20 -20 -20 -20 -20 -20 -20 -20
-17 -19 -20 -20 -20 -20 -20 -20 -10 12 -16 -20 -8 -20 -20 -20 -20 -20 -20 -20 -20 -20 -20 -12 -20 -20 -20 -20 -20 -20 -20 -20 -20 -20 -20 -20 -20 -20 -20 -20 -20 -20 -20 -20 -20 -20 -20 -20 -20 -20 -20 -20 -20 -20
11 10 6 -13 -20 -20 -20 -20 5 1 -20 -12 -20 -20 -20 -20 -20 -20 -20 -20 -20 -20 -20 -4 13 -7 -11 -20 -20 -20 -20 -20 -20 -20 -20 -20 -20 -20 -20 -12 2 -4 -18 -20 -20 -20 -20 -20 -20 -20 -20 -20 -20 -20
3 10 -19 -20 -20 -20 -5 -1 -14 -19 14 -17 -15 -11 -20 -20 -20 -20 -20 -20 -20 -20 18 9 7 16 -7 -20 -20 -20 -20 -20 -20 -20 -20 -20 -20 -20 -20 -20 -19 -16 -20 -20 -20 -20 -20 -20 -20 -20 -20 -20 -20 -20
1 -10 17 -7 -20 -20 7 15 -5 -18 -20 -16 -20 -20 -14 -18 -16 -20 -20 -20 -8 19 19 14 9 -16 -5 -20 -20 -20 -20 -20 -20 -20 -20 -20 -20 -20 -20 -20 -20 -20 -20 -20 -20 -20 -20 -20 -20 -20 -20 -20 -20 -20
23 29 19 15 -5 -1 10 13 12 -17 -12 -20 -13 -18 -9 -11 -4 -19 -20 -20 2 18 25 9 -20 -20 -20 -20 -20 -20 -20 -20 -20 -20 -20 -20 -20 -20 -20 -20 -20 -20 -20 -20 -20 -20 -20 -20 -20 -20 -20 -20 -20 -20
-20 -16 8 26 28 29 25 29 9 -19 -20 -20 -20 -20 -19 -0 -9 -17 -20 -20 -20 -11 -3 -11 -20 -20 -20 -20 -20 -20 -20 -20 -20 -20 -20 -20 -20 -20 -20 -20 -20 -20 -20 -20 -20 -20 -20 -20 -20 -20 -20 -20 -20 -20
-20 -20 -20 13 34 20 18 6 15 -16 -20 -20 -20 -20 -20 -20 -20 -20 -20 -20 -20 -20 -17 -13 -20 -20 -20 -20 -20 -20 -20 -20 -20 -20 -20 -20 -9 -20 -20 -20 -20 -20 -20 -20 -20 4 -20 -20 -20 -20 -20 -20 -20 -20
-20 -20 -20 7 30 34 1 -20 12 5 -20 -20 -20 -20 -20 -20 -20 -20 -20 -20 -4 5 -20 -20 -20 -20 -20 -20 -20 -20 -20 -20 -20 -20 -20 -20 -20 -20 -20 -19 -19 -20 -20 -20 -20 -14 -3 -20 -20 -20 -20 -20 -20 -20
-20 -20 -20 8 8 20 13 -20 -20 -4 -20 -20 -20 -20 -20 -20 -20 -20 -20 -20 -20 -20 -20 -20 -20 -20 -20 -20 -20 -20 -20 -20 -20 -20 -20 -20 -20 -20 -20 -20 -20 -20 -20 -20 -20 -20 -20 -20 -20 -20 -20 -20 -20 -20
-20 -20 -20 -20 -19 -20 -20 -20 -20 -20 -3 -20 -20 -20 -20 -20 -20 -20 -20 -20 -20 -20 -20 -20 -20 -20 -20 -20 -20 -20 -20 -20 -20 -20 -20 -20 -20 -20 -20 -20 -20 -20 -20 -20 -20 -20 -20 -20 -20 -20 -20 -20 -20 -20
-20 4 -20 -20 -20 -20 -20 -20 -20 -20 -20 -20 -20 -20 -20 -20 -20 -20 -20 -20 -20 -20 -20 -20 -20 -20 -20 -20 -20 -20 -20 -20 -20 -20 -20 -20 -20 -20 -20 -20 -20 -20 -20 -20 -20 -20 -20 -20 -20 -20 -20 -20 -20 -20
-11 -10 -20 -20 -20 -20 -20 -20 -20 -20 -20 -20 2 -20 -20 -20 -20 -20 -20 -20 -20 -20 -20 -20 -20 -20 -20 -20 -20 -20 -20 -20 -20 -20 -20 -20 -20 -20 -16 -20 -20 -20 -15 -19 -16 -19 -20 -20 -20 -20 -20 -20 -20 -20
-20 -20 -20 -20 -20 -20 -20 -20 -20 -20 -20 -20 -20 -20 -20 -20 -20 -20 -20 -20 -20 -20 -20 -20 -20 -20 -20 -20 -20 -20 -20 -20 -20 -20 -20 -20 -20 -20 -20 -17 -20 -20 -17 -10 -18 -18 -18 -20 -20 -20 -20 -20 -20 -20
-10 -20 -20 -20 -20 -20 -20 -20 -20 -20 -20 -20 -20 -20 -20 -20 -20 -20 -20 -20 -20 -20 -20 -20 -20 -20 -20 -20 -20 -20 -20 -20 -20 -20 -20 -20 -14 -20 -20 -20 -18 -20 -20 -20 -20 -20 -20 -19 -18 -20 -20 -20 -20 -20
-20 -20 -20 -20 -20 -20 -20 -16 -20 -20 -20 -20 -20 -20 -20 -20 -20 -20 -20 -20 -20 -20 -20 -20 -20 -20 -20 -20 -20 -20 -20 -20 -20 -20 -20 -20 -20 -20 -20 -20 -20 -20 -20 -20 -20 -20 -20 -20 -20 -20 -19 -20 -20 -20
14 10 -7 -20 -20 -18 -18 -20 -20 -20 -20 -20 -20 -20 -20 -20 -20 -20 -20 -20 -20 -20 -20 -20 -20 -20 -20 6 -20 -20 -20 -20 -20 -20 -20 -20 -20 -20 -20 -20 -20 -20 -20 -20 -20 -20 -20 -20 -20 -20 -20 -20 -20 -20
13 7 -12 -17 -20 -20 -20 6 -20 -14 -11 -20 -20 -20 -20 -20 -20 -20 -20 -20 -20 -20 -20 -20 -20 -20 -20 -20 -20 -20 -20 -20 -20 -20 -18 -20 -19 -20 -20 -20 -20 -20 -20 -20 -20 -20 -11 -20 -20 -20 -16 -11 -16 -20
20 9 -6 -9 -16 -20 -20 -20 -20 -20 -20 -20 -20 -20 -20 -20 -20 -20 -20 -20 -20 -20 -20 -20 -20 -20 -20 -20 -20 -20 -20 -20 -20 -20 -20 -20 -15 -11 -20 -20 -20 -20 -20 -20 -20 -20 -20 -20 -20 -20 -20 -20 -20 -20
5 23 19 4 -20 -5 -17 -20 -20 -20 -20 -20 -20 -20 -20 -20 -20 -20 -20 -20 -20 -20 -20 -18 -20 -20 -20 -20 -20 -20 4 -19 -20 -20 -20 -20 -20 -20 -20 -20 -20 -20 -20 -20 -20 -20 -20 -20 -20 -20 -20 -20 -20 -20
-18 -17 2 -10 -20 -20 -20 -20 -20 -20 -20 -20 -20 -20 -20 -20 -20 -20 -20 -20 -20 -20 -20 -20 -20 -20 -20 -20 -20 -20 -20 -20 -20 -20 -20 -20 -20 -20 -20 -20 -20 -18 -18 -18 -17 -20 -20 -20 -20 -20 -20 -20 -20 -20

GFSWCAN_prec_radar_150.txt.gz
Reflectivity
17 16 16 -10 12 13 -7 15 10 11 -20 -20 -20 -20 -20 -2 -20 -20 -20 -20 -20 -20 -20 -20 -20 -20 -20 -20 -20 -20 -20 -20 6 6 -20 -20 -20 -20 -20 -20 -20 -20 -20 -7 9 16 16 -20 -18 17 -1 -9 -20 -20
-19 15 15 18 16 11 9 15 12 -20 16 -20 -20 -20 -20 -20 -20 -20 -20 -19 -20 -11 -20 -20 -20 -20 -20 -20 -20 -20 -20 -20 -20 -9 -20 -14 -1 -4 -20 -20 -20 5 -20 -20 -20 -20 -16 -18 -20 -20 12 -20 -20 -20
7 13 8 11 0 10 16 13 15 15 -20 11 -20 -20 -20 -20 -20 -20 -20 -11 -1 4 -10 -14 -20 -20 -20 -20 -20 -20 -20 -20 -20 -3 20 12 3 -19 -14 -20 -20 -20 -20 6 19 -20 -20 -20 -20 -20 -20 -20 -20 -20
8 13 14 6 -20 -20 6 -6 14 11 -20 -20 -14 -20 -3 -8 -16 -15 8 4 1 9 7 -20 -20 -20 -20 -20 -20 -20 -20 -14 -19 1 10 -6 -3 -20 -20 -20 -20 -20 -18 -6 -20 -20 -20 -20 -20 -19 -20 -20 -20 -20
5 17 10 9 10 -2 16 0 12 -20 27 16 7 13 15 2 8 19 16 14 2 -2 6 3 -19 -20 -20 -20 -20 -20 -20 5 9 11 11 9 -4 -13 -7 -17 -20 -20 -20 -20 -20 -20 -17 6 1 -20 -20 -6 -20 -20
15 14 9 11 14 16 15 25 22 27 29 11 -20 8 11 5 -11 11 -19 -20 -4 7 14 5 -20 -20 -20 -20 -20 -20 -20 -14 14 18 16 7 9 9 9 -20 -20 -20 -20 -12 -20 6 1 -17 18 -17 -20 -19 -20 -20
-17 13 11 -3 18 12 15 15 10 -19 -20 -20 -20 -20 -20 -20 -12 -14 -15 7 9 23 18 12 6 -20 -20 -16 3 6 9 14 18 17 15 7 4 -7 10 9 -18 -14 -14 -8 -17 -9 -8 -20 -20 -20 -20 -20 -20 -20
-20 -12 16 11 17 10 10 9 -20 -20 -20 -20 -20 -20 -20 -20 -11 11 -9 12 32 32 32 14 2 -20 -4 5 19 32 25 31 23 13 7 6 2 18 14 -11 -2 -4 1 3 -18 23 17 -11 -20 -17 -20 -20 -20 -20
-20 -20 6 -17 12 12 -18 -20 -20 -20 -20 -20 -20 -5 10 5 30 20 15 24 27 21 16 10 1 -20 -5 -1 25 26 15 18 18 5 13 5 15 17 3 -9 5 -3 -17 -17 -4 -17 -15 -6 -17 -20 -20 -20 -20 -20
5 -20 14 9 10 -20 -20 -20 -20 -20 -20 -20 -2 24 33 25 16 9 28 19 28 30 22 13 6 17 -20 -0 16 25 24 10 11 7 -8 18 2 -20 -20 -20 -20 -20 -20 -20 -20 -20 -20 -20 -20 -20 -20 -20 -20 -20
-20 -6 1 -20 -7 -20 -20 -20 -20 -15 -20 18 21 14 9 -4 18 14 18 10 10 6 -16 -12 -20 -2 -20 -1 21 -7 19 13 16 15 14 12 -6 -20 -20 -20 -20 -20 -20 -20 -20 -20 -20 -20 -20 -20 -20 -20 -20 -20
-20 -20 -20 -20 -14 -19 -20 -20 -12 -15 20 13 22 -16 -17 -1 -3 9 -9 -20 -13 -20 -20 -20 -20 -9 8 -10 13 13 16 -10 10 3 11 -20 -20 -20 -20 -20 -20 -20 -20 -20 -20 -20 -20 -20 -20 -20 -20 -20 -20 -20
13 -20 -20 -11 1 11 4 -16 -10 29 21 -18 18 7 3 -20 1 -20 -20 -20 -20 -20 -20 -11 4 -17 -20 -2 -18 -16 -20 9 -20 11 -18 -20 -20 -20 -20 -20 -20 -20 -20 -20 -20 -20 -20 -20 -20 -20 -20 -20 -20 -20
7 -20 -20 -20 -20 -20 -7 -19 22 15 13 7 3 -16 -20 -20 -20 -20 -20 -20 -20 -20 -16 -9 10 11 -20 -19 -20 -20 -20 -9 4 1 -20 -20 -20 -20 -20 -20 -20 -20 -20 -20 -20 -20 -20 -20 -20 -20 -20 -20 -20 -20
2 -8 10 -9 -20 -20 -20 6 -13 20 16 -1 -8 -9 -20 -20 -20 -20 -20 -20 -20 -20 -18 1 7 13 3 -8 -20 -20 -17 -4 -8 -20 -20 -20 -20 -20 -20 -20 -20 -20 -20 -20 -20 -20 -20 -20 -20 -20 -20 -20 -20 -20
-13 -18 -19 -11 -13 -20 -20 -20 -0 -20 3 6 -9 -14 -0 -11 -1 0 -6 6 7 -20 -1 5 13 12 -12 -20 -9 -14 -20 -20 17 -20 -20 -20 -20 -20 -13 -18 -20 -20 -20 -20 -20 -18 -12 -20 -20 -20 -20 -20 -20 -20
-20 -20 -18 -20 -20 -20 8 15 15 -10 2 -4 -20 -19 -2 1 -2 15 -20 8 10 9 17 9 15 19 -15 -2 4 -4 -20 -20 -20 -20 -20 -20 -20 -20 -19 -20 -20 -20 -20 -20 -20 -20 -20 -20 -20 -20 -20 -20 -20 -20
16 27 14 13 -20 -11 10 22 20 7 6 -20 0 8 -20 -15 4 -20 -20 -15 9 25 21 20 17 -20 10 6 -20 -20 -20 -20 -20 -10 -20 -20 -20 -20 -20 -20 -20 -20 -20 -20 -20 -20 -20 -20 -20 -20 -20 -20 -20 -20
-4 2 24 27 11 11 15 2 14 4 -20 3 -20 -20 -20 -2 -2 -14 -20 -20 -4 14 24 28 11 6 3 -20 -20 -20 -20 -20 -20 -20 -20 -20 -20 -13 -20 -20 -20 -20 -20 -20 -20 -20 -20 -20 -20 -20 -20 -20 -20 -20
-20 -20 -15 20 27 30 20 18 7 -3 -20 -0 -20 -20 -20 -20 -20 -20 -20 -20 4 7 -3 1 -16 -15 -20 -20 -20 -20 -20 -20 -20 -17 -20 -15 -20 -20 -20 -20 -20 -20 -20 -20 -20 -20 -20 -20 -20 -20 -20 -20 -10 -2
-20 -20 -20 19 15 21 20 2 10 8 -4 -20 -20 -20 -20 -20 -20 -20 -20 -20 3 4 -4 -20 -20 -20 -20 -20 -20 -20 -20 -20 -20 -20 -20 -20 -20 -20 -20 -20 -1 -6 -20 -20 -19 -1 -15 2 1 -20 -20 -3 -20 -1
-20 -20 -6 10 -3 31 13 -20 -20 -20 -20 -20 -20 -20 -20 -20 -20 -20 -20 -20 -20 -20 -20 -20 -20 -20 -20 -20 -20 -20 -20 -20 -20 -20 -20 -20 -20 -16 -4 -8 -1 -11 -18 -20 -15 3 2 -3 -20 3 3 5 -16 -1
-12 -20 -2 8 9 -11 -19 -20 0 -17 17 17 -20 11 -20 -20 -20 -20 -12 -20 -20 -20 -20 -20 -20 -20 -20 -20 -20 -20 -20 -20 -20 -20 -20 -20 -20 -18 -7 -20 -5 0 -3 -9 -19 1 1 -12 -20 6 1 -11 0 -0
3 9 12 8 11 -20 -20 -11 7 12 -5 13 8 1 -20 -1 -20 -20 8 -20 -20 -20 -20 -20 -20 -20 -20 -20 -20 -20 -20 -20 -20 -20 -20 -20 -20 -20 -20 -20 -19 -16 -6 -14 -6 -1 -0 8 -14 1 -19 -16 -4 -1
16 4 4 0 -20 -6 -19 -20 -20 6 -0 -3 8 6 -18 -20 14 9 -17 -7 -20 -7 -20 -20 -20 -20 -20 -19 -20 -20 -20 -20 -20 -20 -20 -20 9 -20 -20 -19 -20 -17 -8 6 5 4 4 5 3 -20 -20 -20 -9 -4
3 -19 -20 -20 -10 -7 -20 -20 -20 -19 -3 -20 -8 -16 -20 13 10 -8 -20 -20 -20 -20 14 14 -5 -13 -13 -13 7 8 -12 -20 -20 -20 -20 -20 -4 7 -6 -17 -18 -11 -4 -4 5 -19 0 -20 -20 -20 -20 -15 3 -20
2 -20 -20 -20 -20 -20 -10 -20 -20 -14 -20 -20 -3 -20 9 8 -20 -20 -20 -20 -20 -20 -20 -20 -20 -20 -20 -20 -20 -20 -20 -20 -20 -20 -20 -20 2 7 13 10 -3 -5 -20 -20 -11 2 0 -20 -20 -20 -20 -20 -20 -1
-13 -20 -20 -20 -20 -20 -20 -20 -20 0 11 0 -20 -20 -10 -20 -20 -20 -20 -20 -20 -20 -20 -20 -20 -20 -20 -20 -20 -20 -20 -20 -20 -20 -20 -20 -20 -20 -20 -20 -20 -20 -20 -20 -20 -19 -2 -1 2 0 -19 -20 -20 -14
19 21 -7 -18 -20 -19 -20 16 13 -11 -20 -13 -15 19 13 -20 -20 17 -20 -20 -20 -20 -20 -20 -20 -20 -20 -20 -20 -20 -20 -20 -4 -18 -20 9 14 -5 -20 -20 -20 -20 -13 -20 -20 -20 -18 -20 -6 0 2 3 2 -1
-9 -7 0 1 -12 15 -9 15 -15 -8 -20 -20 -20 -20 -19 -7 -20 -20 -20 -20 -20 -20 -20 -20 -20 -14 -20 -20 -20 -19 2 -20 -17 -3 8 12 14 -11 -20 -20 -20 -20 -20 -9 -20 -20 -19 -13 -20 -13 0 -19 -7 -7
8 13 11 15 11 -5 -11 -16 -15 -9 -9 -20 -19 -15 -20 -20 -20 -20 -20 -20 -20 -20 -9 -20 -8 -20 -14 -14 -20 -20 -20 5 -20 -11 -17 -14 -8 2 -1 -20 -7 -16 -20 -20 -20 -15 -20 -14 -3 -20 -16 -20 -20 -19
-2 -4 5 11 12 15 -12 -20 -20 -20 -20 -20 -13 -20 -20 -20 -20 -20 -20 -20 -20 -4 -20 -4 -6 -7 -2 -20 -20 -19 -19 -19 -20 -20 -20 -20 -20 -19 -9 -6 -15 -1 -20 -15 -3 -20 -20 -5 -17 -20 -20 -20 -20 -20
-19 -2 2 -20 -20 -20 -20 -17 -20 -20 -20 -12 -20 -20 -20 -20 -20 -20 -19 -20 -20 -19 -0 -1 -3 -20 -20 -20 -17 -16 5 17 -4 -20 -20 -20 -20 -20 -13 -20 -3 -16 -7 -17 -18 -3 -19 -20 -20 -20 -20 -20 -20 -20

GFSWCAN_prec_radar_156.txt.gz
Reflectivity
-20 -20 -20 -20 -20 -20 -20 -10 -20 -20 -20 -20 -20 -20 -20 -20 -20 -20 -20 -20 -20 -20 -20 -20 -20 -20 -20 -20 -20 -20 -20 -20 -20 -20 -20 -20 -20 -20 -20 -20 -20 -20 -20 -20 -5 -10 6 -20 -20 -2 -7 -20 5 -20
10 -19 4 -20 -20 -20 -20 5 -20 -20 -20 -20 -20 -20 -20 -20 -20 -20 -20 -20 -20 -20 -20 -20 -20 -20 -20 -20 -20 -20 -20 -20 -20 -20 -20 -20 -20 -20 -19 3 -20 -20 -19 5 -17 -2 -20 -20 -20 -20 16 23 -20 -20
12 8 -17 -20 -20 -20 -20 12 -20 -20 -20 -20 -20 -20 -20 -20 -20 -20 -20 -20 -20 -20 -20 -20 -20 -20 -20 -20 -20 -20 -17 -20 -20 -19 -20 -15 -3 -20 -9 -19 -17 -20 -20 -16 -14 -20 -20 -20 -20 -20 -20 -20 22 -20
8 11 -4 -20 -20 1 -19 -20 -20 -20 -20 -20 -20 -20 -20 -20 -20 -20 -20 -20 -20 -20 -8 1 -20 -20 -20 -20 -20 -20 -20 -13 -20 -20 6 -8 2 -18 -20 -20 -20 -20 -18 -20 2 -13 -20 -20 -20 -20 -20 -20 -20 -20
9 9 12 7 14 0 0 -4 -18 -20 -20 -20 -20 -20 -20 -20 -20 -11 -17 -11 -20 -12 1 1 -20 -20 -20 -20 -20 -20 -20 -20 -20 -20 -20 -3 -20 4 -20 -20 -20 -20 -20 -20 -20 -20 -20 -20 -20 -20 -20 -20 -20 -20
3 14 16 13 11 17 -17 -19 10 3 -19 -20 -20 -20 -20 -20 -20 2 -19 9 -20 -20 -4 -15 -20 -20 -20 -20 -20 -20 -20 -20 -19 6 -7 -16 -20 4 7 5 -20 -20 -20 -20 -20 -20 -20 -20 -20 -20 -20 -20 -20 -20
14 -5 26 13 34 23 13 -14 -20 11 12 7 12 -12 -12 -20 1 9 13 6 -20 -20 3 -3 1 -20 -20 -20 -12 3 -16 -10 14 15 7 6 4 18 10 12 -20 -20 -20 -20 -20 -20 -20 -20 -20 -20 -20 -20 -20 -20
17 -20 15 26 22 27 -5 3 8 1 14 13 7 27 18 -20 -6 6 -20 -20 -20 -20 -12 9 1 20 -14 -11 14 -3 16 -11 3 6 3 8 -13 15 8 -20 -20 -20 -20 -20 -20 -20 -20 -20 -20 -20 -20 -10 13 21
14 -9 16 25 7 21 -2 10 29 10 38 34 12 -16 -20 -20 -0 2 -18 -20 -13 -16 16 2 2 19 25 16 -11 -6 3 12 2 7 5 19 11 10 -20 -20 -20 -20 -20 -20 -20 -20 -14 -20 -20 -20 8 18 32 35
16 17 -3 -1 31 25 20 35 33 -10 -20 -20 -20 -19 4 -5 -20 -20 7 -13 12 19 8 -11 7 20 22 21 22 12 9 7 13 -2 -15 8 -18 -20 -20 -20 -20 -20 -20 -20 -18 -20 24 28 31 31 7 24 6 -20
-2 8 14 16 21 26 -0 -20 -20 -20 -20 3 8 -5 4 8 9 7 14 11 6 3 -4 -16 -20 -20 -2 14 16 18 19 11 13 8 6 13 -7 14 7 5 -6 -14 -18 3 3 -20 24 33 8 -3 -17 -8 2 -20
1 -2 -20 9 -12 -4 -20 -20 -20 -20 6 6 12 27 22 24 19 18 14 16 17 12 19 4 8 -3 15 20 9 12 9 12 13 -1 10 11 22 -8 -20 -20 -15 -20 -20 -20 -20 -1 -20 -10 -20 -20 10 -19 -20 -20
-20 -20 -20 -20 -20 -20 -20 -20 -20 -14 -20 12 6 15 19 14 19 -15 1 3 8 -19 -15 -7 14 17 14 -4 14 -6 -5 1 20 13 -16 6 20 -20 -20 -20 -20 -20 -20 -20 -20 -20 -20 -19 -20 -20 -20 -20 -20 -20
-20 -20 -20 16 -18 -20 -20 -20 -20 -19 -14 16 7 14 14 -6 -20 -20 -19 15 7 21 -10 7 4 -16 -7 -13 -19 7 1 -20 -2 9 7 1 -17 -20 -20 -20 -20 -20 -20 -20 -20 -20 -20 -20 -20 -20 -20 -20 -20 -20
-7 -20 -20 -13 -15 -20 -20 -20 -20 -12 32 23 8 10 -1 -13 12 13 7 -20 12 -2 -20 -7 -5 13 19 12 -17 -20 5 1 -2 -15 26 3 -20 -20 -20 -20 -20 -20 -20 -20 -20 -20 -20 -20 -20 -15 -12 -7 -20 -20
-4 -20 13 1 -20 -6 -20 -17 -4 15 27 0 -9 -2 -20 -20 -1 -20 -20 -20 4 -6 -13 -4 -3 19 14 14 -8 -20 -0 1 26 19 3 -16 -20 -12 -14 -20 -20 -20 -20 -20 -20 -20 -20 -20 -20 -17 -5 -20 -20 -20
-20 21 -20 -20 -20 -20 -20 18 19 22 12 2 -18 4 -19 -3 6 33 4 -18 19 3 -4 15 13 2 20 17 14 11 12 24 -2 -5 -20 -20 -20 -6 -7 -20 -20 -20 -20 -20 -20 -20 -20 -20 -20 -20 -20 -20 -20 -20
11 3 -14 -13 -20 -20 -17 13 26 2 5 -18 -1 -5 -14 0 -12 9 -4 20 18 18 11 14 -8 -14 16 19 19 22 -6 15 -18 -20 -20 -20 -20 -17 -17 -20 -20 -20 -20 -20 -20 -20 -20 -19 -2 -20 -20 -20 -20 -20
-5 14 23 9 -20 1 5 2 -8 2 1 -1 -15 -3 -5 16 -10 -14 17 -15 19 0 -15 2 -2 0 13 16 1 -10 -16 -0 7 -20 -20 -20 6 -1 12 -12 -20 -20 -20 -20 -20 -20 -20 -20 -20 -20 -20 -20 -16 -20
24 15 5 29 0 17 -2 -6 2 14 17 17 -7 5 8 3 -20 15 6 -20 -2 14 2 8 -20 15 22 35 -11 18 21 -6 -20 -20 2 -20 -20 -20 3 -5 -20 -8 -20 -20 -20 -7 -20 -20 -20 -20 -20 -15 -20 -20
9 6 8 16 33 29 22 33 -6 -15 -7 13 -4 3 9 14 18 16 14 3 14 11 -7 -15 17 16 16 -13 -18 -20 -20 -20 -20 -20 -16 3 -20 -20 -20 -20 -20 -20 1 -5 -20 -13 -2 -20 -20 -20 -20 -19 -20 -20
11 9 10 13 30 26 17 -18 14 29 -16 12 19 16 21 19 -13 17 17 17 5 -20 -20 -20 -16 14 2 7 2 -20 -20 -20 -20 -20 -20 -20 -20 -20 -20 -9 1 -15 -1 -3 -20 -3 -20 -20 -20 -12 1 -19 -5 -15
-13 8 20 10 2 1 7 3 15 0 18 6 16 18 16 17 8 22 -1 -20 -16 -6 -9 9 -2 -20 -20 -20 -20 -20 -20 -20 -9 -20 -20 -20 -19 -20 -20 -20 -10 4 -20 -20 -20 -20 -20 -20 -9 -14 -20 -14 -2 -3
19 21 4 19 -3 5 -20 -2 -17 -15 5 4 -6 -16 3 -5 13 7 -20 -20 13 10 -20 -20 -20 -20 5 -20 -2 -0 -11 -20 -20 -1 -20 4 3 -4 -20 -20 -20 -20 -16 -19 -4 -20 -20 -20 -15 -10 -8 -1 -5 -18
-4 -12 5 16 8 12 -0 -19 -20 -5 -1 -19 -19 -3 -18 14 -5 -5 -20 -16 19 9 -20 -20 -20 -19 -13 5 -18 14 -19 -20 3 7 -10 8 1 -16 -15 -4 -19 -20 -20 -20 25 -16 -20 -20 -20 -15 -7 -20 -18 -15
1 6 -6 8 16 12 15 -9 4 -10 -10 -4 12 4 -8 16 10 -2 -10 22 -9 -20 -20 -20 14 11 6 6 7 5 -4 -1 -1 0 -2 7 5 -11 -1 14 14 -12 -20 -17 8 4 -17 -20 -20 -20 -20 -12 8 -6
11 16 -6 -20 -6 13 12 -9 -14 -10 6 2 5 15 -2 -16 -16 -20 -18 8 11 -3 -11 -20 -15 -20 -20 -20 -20 -20 -20 -20 -20 -12 -20 -13 1 -11 -12 -4 -0 14 1 -17 -20 -18 -12 -16 -20 -11 -20 -20 -20 -17
14 8 12 -3 -7 -20 16 13 1 14 4 -2 14 16 14 12 12 24 18 -16 18 9 5 12 0 -20 -20 -20 -20 -20 -20 -9 -17 -20 -20 -20 2 -20 -20 -20 -20 -20 3 -19 -20 -15 -2 -7 -9 -8 -20 -18 -20 -20
12 -13 -20 -20 17 15 3 4 2 -15 16 16 13 16 15 3 13 26 7 -2 -2 -20 -20 -20 -20 -10 -20 -20 -18 -5 4 -6 -17 6 2 2 -12 -1 24 20 -17 -20 -20 -20 12 6 11 20 13 -1 -7 -17 -18 -18
-15 -5 2 -8 10 14 17 16 20 2 -20 -18 -19 -4 9 11 20 17 -5 -20 -3 -7 -20 -20 -20 -20 -20 -20 -20 -12 -19 -8 -20 -1 -1 -7 5 -13 -9 -20 -13 4 3 11 4 3 -6 -3 2 17 21 18 20 11
3 6 13 -12 0 14 10 13 9 -3 -8 9 -2 -9 18 17 16 10 7 12 8 1 -19 -20 -20 -20 -15 -20 6 5 -14 16 -18 -19 -8 -6 -8 -13 -1 -20 -18 7 8 4 2 8 -11 18 8 -20 -3 -7 11 4
-13 7 2 3 2 -20 6 3 0 12 16 -1 1 -18 -1 13 14 9 4 12 5 2 1 -2 -19 3 -1 6 8 4 4 -4 -11 -20 -4 1 -4 -16 -20 -20 -8 4 -2 -13 -10 -20 -20 -4 1 -0 6 4 3 -7
-5 3 14 -1 -13 -7 -20 1 5 11 15 18 21 18 18 23 15 19 10 12 0 3 1 1 -20 0 -6 -14 11 -10 -19 -20 -1 -2 6 9 0 -20 -20 -17 -5 -8 2 -6 -9 18 -11 -17 1 -5 -19 -20 -20 -7

GFSWCAN_prec_radar_159.txt.gz
Reflectivity
-20 14 -17 -20 -20 -20 -12 -17 -20 -20 -20 -20 -20 -20 -20 -20 -20 -20 -20 -20 -20 -20 -20 -19 -14 2 12 -4 -20 -20 -20 -20 -20 -20 -3 -20 -20 -20 -20 -20 -20 -20 -20 -20 -20 -20 -20 -20 -20 -20 -20 -14 -20 -20
10 -20 -20 -17 0 -20 15 -15 -20 -20 -20 -20 -20 -20 -20 -20 -20 -20 -20 -20 -20 -20 -20 -19 -20 -14 -17 -20 -20 -20 -20 -20 -20 -20 -19 -19 -20 -20 -20 -20 -20 -20 -20 -20 -20 -20 -20 -20 -20 -20 -1 -20 -20 -20
-20 -20 -20 -20 -20 -20 -20 -20 -20 -20 -20 -20 -20 -20 -20 -20 -20 -20 -20 -20 -20 -20 -20 -20 -20 -20 -20 -20 -20 -20 -20 -20 -20 -20 -20 -20 -20 -20 -20 -20 -20 -20 -20 -20 -20 -20 -20 -20 -20 -20 -20 -19 -20 -20
13 7 -8 -20 -15 -20 -20 -20 -20 -20 -20 -20 -20 -20 -20 -20 -20 -20 -20 -20 -20 -20 -20 -20 -20 -20 -20 -20 -20 -20 -20 -20 -20 -20 -20 -20 -20 -20 -20 -20 -20 -20 -20 -20 -20 -20 -20 -20 -20 -20 -20 -20 -20 -20
-9 8 11 10 -12 -20 -20 -20 -20 -20 -20 -20 -20 -20 -20 -20 -20 -20 -20 -20 -20 -20 -20 -20 -20 -20 -20 -20 -20 -20 -20 -20 -20 -20 -20 -20 -20 -20 -20 -20 -20 -20 -20 -20 -20 -20 -20 -20 -20 -20 -20 -20 -20 -20
2 10 10 -15 -19 -20 -20 -20 -20 -20 -20 -20 -20 -20 -20 -20 -20 -20 -20 -20 -20 -20 -20 -20 -20 -20 -20 -20 -20 -20 -20 -20 -20 -20 -20 -20 -20 -20 -20 -20 -20 -20 -20 -20 -20 -20 -20 -20 -20 -20 -20 -20 -20 -20
2 13 9 15 5 13 0 -20 10 -1 -20 -20 -20 -20 -20 -20 -20 -20 -14 -20 -20 -20 -20 -20 -20 -20 -20 -20 -20 -20 -20 -20 -20 -20 -20 -20 -20 -20 -20 -20 -20 -20 -20 -20 -20 -20 -20 -20 -20 -20 -20 -20 -20 -20
19 19 -18 25 -11 20 12 -8 15 14 10 3 -11 -20 13 -20 -20 -20 -20 -20 -20 -20 -20 -16 -20 -3 -20 -20 -20 -20 -20 -20 -20 -20 -20 -20 -20 -17 -2 -20 -20 -20 -20 -20 -20 -20 -20 -20 -20 -20 -20 -20 -20 -20
-20 -16 -20 18 18 39 19 2 6 14 14 -16 -20 13 -11 -20 -20 -20 -20 -20 -20 -20 -20 -20 -20 7 18 -9 -20 -20 -20 -3 -20 -20 -7 -9 -16 -18 -20 -20 -20 -20 -20 -20 -20 -20 -20 -20 -20 -20 -20 -20 -20 9
-20 -20 9 33 19 12 5 11 13 19 -16 29 15 -20 -20 -20 -20 -20 -20 -20 -20 -19 -20 -20 -20 -20 -16 18 -19 -19 -20 -14 7 -20 -20 -14 -19 -6 5 -20 -20 -20 -20 -20 -20 -20 -10 25 25 -14 -20 -20 33 15
12 -4 -18 18 12 11 12 26 20 25 29 -13 -20 -20 -13 7 -14 -16 6 -10 -18 -7 -20 -20 -20 -20 -3 -20 -12 -3 -10 -20 -12 -19 -17 -3 3 -20 -20 -19 -20 -20 -20 -20 -20 -3 29 12 -19 6 -17 1 26 -18
3 8 -7 30 33 10 22 29 25 14 -2 -15 -17 -11 5 20 5 3 -16 -20 -17 -16 -20 -20 -20 -20 -4 -11 -20 -20 -20 2 -1 -7 -15 -16 22 -10 -20 -20 -20 -20 -20 -20 -20 -19 1 5 3 -11 -15 3 -0 -20
7 -2 8 12 9 -4 -20 -20 -19 -8 -17 -20 7 12 -4 -20 18 -15 -20 -18 -20 -20 -14 -17 -20 14 -15 -15 -20 -20 -15 -18 -20 -20 -17 -19 19 11 -20 -20 -20 -20 -20 -20 -20 -20 -20 -13 -14 22 -20 -20 -20 -20
-20 -20 -20 -20 -20 -20 -20 -20 -20 -20 -20 -15 -19 -20 -15 1 -20 -20 -20 -20 12 -20 18 -20 -20 -15 -20 -20 -20 -20 -20 -20 -20 -20 -19 24 -3 -20 -20 -20 -20 -20 -20 -20 -20 9 -15 3 -9 -20 -20 -20 -20 -20
-20 -6 -20 -6 -14 -20 -20 -20 -20 -20 -9 1 -10 -6 -20 -20 -20 -20 -5 18 14 -18 -20 -20 -20 -20 -20 -15 -20 -20 -20 -20 -20 -20 21 -17 -20 -20 -20 -20 -20 -20 -20 -20 -4 9 6 10 -1 -1 -20 -20 -20 -20
-20 -20 -18 17 0 -20 -20 -20 -20 -20 25 19 -18 -20 -20 -20 -20 -20 -20 -20 -20 -20 -20 -20 -9 -20 2 -20 -20 -20 -20 -20 18 -13 -9 -20 -20 -20 -20 -20 -20 -20 -20 -20 -7 4 8 -2 9 -9 9 7 -20 -20
-11 28 7 -20 8 12 -20 -12 18 -4 -2 -20 -20 -20 -20 -20 -20 -20 -20 -20 -20 -20 -20 -20 -20 -20 12 7 8 -20 -20 -20 -20 -20 -20 -20 -20 -14 -20 8 -20 -20 -20 -15 -8 11 12 1 7 9 -12 -20 -15 -16
14 14 12 -20 -20 -20 -17 6 -1 -7 -20 -20 -20 -20 -20 -20 -20 -20 -20 -20 -12 11 -15 5 -20 -15 13 18 23 26 12 -20 -20 -20 -20 -20 6 -0 0 -18 -20 -20 -20 -14 4 -20 -20 -20 -17 -20 -20 -20 -20 -20
29 -1 -20 9 -20 -1 9 -3 -13 -14 -20 -20 -20 -20 -20 -20 -20 -20 -20 -20 6 18 -13 -20 -20 8 -2 3 19 17 -20 13 16 -20 -20 -20 -5 -8 -13 -2 -4 -18 -17 -9 -20 -20 -20 -10 -20 -20 -20 -20 -20 -20
4 -11 -20 -20 10 -1 -20 -19 -17 -20 -20 -20 -20 -20 -20 -20 -20 -20 -20 -20 -20 -9 -14 -20 -20 -20 -20 -20 -14 27 22 17 12 -20 -20 -20 -20 -20 -11 -10 -5 -1 6 -20 -20 1 -20 -20 -20 -20 -20 -14 -20 -20
-12 13 17 18 -0 5 1 23 -4 2 -20 -20 -20 -20 -20 -20 -20 -20 5 12 -20 -20 -20 -20 -5 -20 -10 19 -16 9 13 -20 -20 -20 -20 -20 -20 -20 -20 -20 -20 4 -2 -0 6 -3 -9 -20 -20 -20 -20 -20 -20 -20
26 13 8 5 22 -7 -9 -20 20 31 5 -20 12 -18 5 -15 -11 11 7 -1 -20 -2 -20 -20 -20 -20 3 9 -6 8 -20 -20 -20 -20 -20 -20 -20 -20 -20 -20 -2 2 4 -14 -0 -0 1 -13 -20 -20 -20 -20 -2 -18
-11 16 14 -5 7 2 -19 -20 0 -17 12 0 -10 9 -15 -0 -9 12 1 -20 -20 -20 -20 -20 -20 -20 -20 -20 -20 -20 -20 -20 -20 -20 -18 -7 -1 2 7 -9 -20 -19 6 -6 -13 -1 -20 -15 -20 -20 -20 -16 -19 -19
16 -7 -14 10 -6 -19 -20 -20 -20 -20 -20 -20 -16 -14 -1 -20 1 -20 -16 -20 -20 -20 -20 -20 -20 -20 -20 -20 -20 -20 -20 -20 -20 -20 -20 -3 -2 -20 -20 -20 -20 -20 -20 -14 -20 -20 -20 -20 -20 -20 -20 -20 -20 -20
-1 -5 1 -4 -3 -19 -20 -20 -20 -20 -20 -20 -20 -20 -20 -20 -20 -20 -20 -20 -20 -20 -20 -20 -20 -20 -20 -20 -20 -20 -20 -20 -20 -20 -20 -20 5 -15 -19 -20 8 -20 -20 -19 -20 1 -19 -20 -20 -20 -20 -20 -20 -20
6 -20 -20 -10 -9 6 -11 -20 -20 -20 -20 -20 -20 -20 -20 -1 -14 -20 -20 -20 -20 -20 -20 -20 -20 -20 -20 -20 -20 -20 -20 -20 -20 -20 -20 -20 -20 -20 -20 -16 1 -20 -20 -20 -20 -20 -18 -20 -20 -20 -20 -20 -19 -14
7 -12 9 -1 -12 -7 -9 -9 -13 -3 -20 -20 -20 -20 -19 -11 -20 -20 6 -20 -20 -20 -20 -20 -20 -20 -20 -20 -20 -20 -20 -20 -20 -20 -20 -20 -20 -20 -20 -20 -20 -20 -20 -20 7 -13 -14 -20 -19 -19 -20 -20 -20 -20
8 -16 -20 -20 -20 -8 -18 -20 -20 -20 -20 -20 -20 -20 -18 -17 -3 20 17 25 -20 -20 -20 -20 -20 -20 -20 -20 -20 -20 -20 -20 -20 -20 -20 -20 -20 -7 2 -6 -16 -16 -20 -19 13 11 6 1 -13 -20 -17 -20 -20 -20
6 -20 -20 1 0 -7 -20 -18 -20 2 -20 13 -16 15 18 -16 -6 12 16 7 -5 -20 -20 -20 -20 -20 -20 -20 -20 -20 -13 -14 -20 -20 -20 -18 -20 -20 -17 -9 -19 -20 -13 -13 16 4 4 7 10 5 -11 -19 -19 -18
-1 -20 4 -12 8 17 15 11 2 18 -1 -20 -17 9 16 21 21 13 12 -2 8 -3 -13 -20 -20 -20 -20 -20 -20 -10 -10 -20 -20 -20 -18 -13 -9 -17 -20 -19 -15 -0 -2 -2 0 3 15 -4 -1 -1 1 2 -4 -11
3 -0 10 -13 -12 -15 -20 -20 -20 -1 -17 -20 -20 10 11 12 16 15 15 11 11 -4 -20 -18 -15 -20 -3 2 -13 -14 -14 -16 -20 -20 -11 -9 -10 -10 -18 -10 -9 -7 -12 -20 -16 -6 -8 -8 -20 -19 -18 7 -3 -1
-10 -18 8 -8 -20 -20 -20 -20 -20 -20 -20 -20 -16 3 16 18 12 3 17 -15 -20 -20 -12 -16 -20 -10 -20 -16 -15 -20 -19 -20 -20 -20 -8 -14 -20 -2 -19 -20 -16 -3 -6 -17 -15 -20 -20 -20 -20 -20 -20 -20 -20 -20
-20 -18 5 -20 -20 -20 -20 -17 -20 -20 -20 -2 12 17 18 20 13 11 -10 2 -0 -11 -18 -14 -3 -18 -20 -20 -20 -20 -20 -20 -4 4 -9 1 0 1 -9 -20 -15 -13 -18 -18 -15 -5 -17 -14 -19 -20 -20 -20 -20 -20